Time,TemperatureF,DewpointF,PressureIn,WindDirection,WindDirectionDegrees,WindSpeedMPH,WindSpeedGustMPH,Humidity,HourlyPrecipIn,Conditions,Clouds,dailyrainin,SoftwareType,DateUTC
2013-04-17 00:00:00,46.5,39.3,30.25,North,360,2.9,3.5,76,0.00,RA,,0.00,WeatherDisplay:10.37,2013-04-17 04:00:00,
2013-04-17 00:05:00,46.5,39.7,30.25,NNW,342,2.5,3.5,77,0.00,RA,,0.00,WeatherDisplay:10.37,2013-04-17 04:05:00,
2013-04-17 00:06:00,46.5,39.3,30.25,North,5,2.2,3.5,76,0.00,RA,,0.00,WeatherDisplay:10.37,2013-04-17 04:06:00,
2013-04-17 00:10:00,46.4,39.2,30.25,North,355,1.7,3.5,76,0.00,CLR,,0.00,WeatherDisplay:10.37,2013-04-17 04:10:00,
2013-04-17 00:11:00,46.4,39.6,30.25,North,355,1.9,3.5,77,0.00,CLR,,0.00,WeatherDisplay:10.37,2013-04-17 04:11:00,
2013-04-17 00:15:00,46.4,38.9,30.26,North,360,0.3,1.1,75,0.00,CLR,,0.00,WeatherDisplay:10.37,2013-04-17 04:15:00,
2013-04-17 00:16:00,46.4,38.9,30.26,North,360,0.5,2.3,75,0.00,CLR,,0.00,WeatherDisplay:10.37,2013-04-17 04:16:00,
2013-04-17 00:20:00,46.4,38.9,30.26,NNW,334,1.2,3.5,75,0.00,CLR,,0.00,WeatherDisplay:10.37,2013-04-17 04:20:00,
2013-04-17 00:21:00,46.4,38.9,30.26,NNE,13,1.5,3.5,75,0.00,CLR,,0.00,WeatherDisplay:10.37,2013-04-17 04:21:00,
2013-04-17 00:22:00,46.4,39.2,30.26,North,360,1.7,3.5,76,0.00,CLR,,0.00,WeatherDisplay:10.37,2013-04-17 04:22:00,
2013-04-17 00:25:00,46.4,39.6,30.26,North,355,0.8,2.3,77,0.00,CLR,,0.00,WeatherDisplay:10.37,2013-04-17 04:25:00,
2013-04-17 00:26:00,46.4,39.6,30.26,North,349,1.2,2.3,77,0.00,CLR,,0.00,WeatherDisplay:10.37,2013-04-17 04:26:00,
2013-04-17 00:27:00,46.4,39.2,30.26,North,360,1.2,3.0,76,0.00,CLR,,0.00,WeatherDisplay:10.37,2013-04-17 04:27:00,
2013-04-17 00:30:00,46.3,39.5,30.26,North,5,0.6,3.5,77,0.00,CLR,,0.00,WeatherDisplay:10.37,2013-04-17 04:30:00,
2013-04-17 00:31:00,46.4,39.2,30.26,North,10,1.6,3.5,76,0.00,CLR,,0.00,WeatherDisplay:10.37,2013-04-17 04:31:00,
2013-04-17 00:32:00,46.3,39.1,30.26,North,355,2.7,3.5,76,0.00,CLR,,0.00,WeatherDisplay:10.37,2013-04-17 04:32:00,
2013-04-17 00:35:00,46.3,39.5,30.26,North,360,1.5,3.5,77,0.00,CLR,,0.00,WeatherDisplay:10.37,2013-04-17 04:35:00,
2013-04-17 00:36:00,46.3,39.5,30.26,North,355,1.3,3.5,77,0.00,CLR,,0.00,WeatherDisplay:10.37,2013-04-17 04:36:00,
2013-04-17 00:37:00,46.3,39.5,30.26,NNW,343,2.5,3.5,77,0.00,CLR,,0.00,WeatherDisplay:10.37,2013-04-17 04:37:00,
2013-04-17 00:41:00,46.3,39.1,30.26,North,5,1.0,3.5,76,0.00,CLR,,0.00,WeatherDisplay:10.37,2013-04-17 04:41:00,
2013-04-17 00:42:00,46.3,39.1,30.26,NNW,342,0.9,2.3,76,0.00,CLR,,0.00,WeatherDisplay:10.37,2013-04-17 04:42:00,
2013-04-17 00:43:00,46.3,39.1,30.26,North,355,1.2,3.5,76,0.00,CLR,,0.00,WeatherDisplay:10.37,2013-04-17 04:43:00,
2013-04-17 00:46:00,46.3,39.5,30.26,North,355,1.6,2.3,77,0.00,CLR,,0.00,WeatherDisplay:10.37,2013-04-17 04:46:00,
2013-04-17 00:47:00,46.3,39.5,30.26,North,350,1.3,2.3,77,0.00,CLR,,0.00,WeatherDisplay:10.37,2013-04-17 04:47:00,
2013-04-17 00:48:00,46.3,39.5,30.26,North,350,0.2,2.3,77,0.00,CLR,,0.00,WeatherDisplay:10.37,2013-04-17 04:48:00,
2013-04-17 00:52:00,46.3,39.5,30.27,North,5,0.8,2.3,77,0.00,CLR,,0.00,WeatherDisplay:10.37,2013-04-17 04:52:00,
2013-04-17 00:53:00,46.3,39.5,30.27,North,350,1.1,3.5,77,0.00,CLR,,0.00,WeatherDisplay:10.37,2013-04-17 04:53:00,
2013-04-17 00:57:00,46.3,39.5,30.27,WNW,299,2.5,4.0,77,0.00,CLR,,0.00,WeatherDisplay:10.37,2013-04-17 04:57:00,
2013-04-17 00:58:00,46.3,39.5,30.27,NW,319,3.5,4.6,77,0.00,CLR,,0.00,WeatherDisplay:10.37,2013-04-17 04:58:00,
2013-04-17 01:02:00,46.3,39.1,30.27,North,360,2.7,4.6,76,0.00,CLR,,0.00,WeatherDisplay:10.37,2013-04-17 05:02:00,
2013-04-17 01:03:00,46.3,39.5,30.27,NNW,344,2.4,4.6,77,0.00,CLR,,0.00,WeatherDisplay:10.37,2013-04-17 05:03:00,
2013-04-17 01:04:00,46.3,39.5,30.27,North,355,2.7,3.5,77,0.00,CLR,,0.00,WeatherDisplay:10.37,2013-04-17 05:04:00,
2013-04-17 01:07:00,46.2,39.4,30.27,North,355,3.6,5.8,77,0.00,CLR,,0.00,WeatherDisplay:10.37,2013-04-17 05:07:00,
2013-04-17 01:08:00,46.2,39.4,30.27,North,360,3.8,6.9,77,0.00,CLR,,0.00,WeatherDisplay:10.37,2013-04-17 05:08:00,
2013-04-17 01:09:00,46.2,39.1,30.27,NNW,344,3.8,4.6,76,0.00,CLR,,0.00,WeatherDisplay:10.37,2013-04-17 05:09:00,
2013-04-17 01:12:00,46.1,39.0,30.27,North,355,3.3,5.8,76,0.00,CLR,,0.00,WeatherDisplay:10.37,2013-04-17 05:12:00,
2013-04-17 06:35:00,46.3,39.8,30.27,NNE,15,8.5,9.2,78,0.00,CLR,,0.01,WeatherDisplay:10.37,2013-04-17 10:35:00,
2013-04-17 06:40:00,46.4,39.6,30.26,NNE,30,3.5,3.5,77,0.00,CLR,,0.01,WeatherDisplay:10.37,2013-04-17 10:40:00,
2013-04-17 06:42:00,46.4,39.6,30.26,NE,45,6.5,9.2,77,0.00,CLR,,0.01,WeatherDisplay:10.37,2013-04-17 10:42:00,
2013-04-17 06:45:00,46.4,39.6,30.26,NE,43,5.0,6.9,77,0.00,CLR,,0.01,WeatherDisplay:10.37,2013-04-17 10:45:00,
2013-04-17 06:46:00,46.3,39.5,30.26,NE,53,4.5,8.0,77,0.00,CLR,,0.01,WeatherDisplay:10.37,2013-04-17 10:46:00,
2013-04-17 06:47:00,46.3,39.5,30.26,NNE,28,5.2,9.2,77,0.00,CLR,,0.01,WeatherDisplay:10.37,2013-04-17 10:47:00,
2013-04-17 06:50:00,46.3,39.8,30.26,NNE,32,3.0,4.6,78,0.00,CLR,,0.01,WeatherDisplay:10.37,2013-04-17 10:50:00,
2013-04-17 06:51:00,46.3,39.8,30.26,NE,36,3.3,5.0,78,0.00,CLR,,0.01,WeatherDisplay:10.37,2013-04-17 10:51:00,
2013-04-17 06:52:00,46.2,39.7,30.27,NNE,15,4.2,4.6,78,0.00,CLR,,0.01,WeatherDisplay:10.37,2013-04-17 10:52:00,
2013-04-17 06:55:00,46.2,40.0,30.26,North,360,4.4,5.8,79,0.00,CLR,,0.01,WeatherDisplay:10.37,2013-04-17 10:55:00,
2013-04-17 06:56:00,46.1,39.9,30.26,NNE,18,4.4,6.9,79,0.00,CLR,,0.01,WeatherDisplay:10.37,2013-04-17 10:56:00,
2013-04-17 06:57:00,46.1,39.6,30.26,NNE,17,2.8,3.5,78,0.00,CLR,,0.01,WeatherDisplay:10.37,2013-04-17 10:57:00,
2013-04-17 07:01:00,46.2,39.7,30.26,ENE,57,4.4,7.0,78,0.00,CLR,,0.01,WeatherDisplay:10.37,2013-04-17 11:01:00,
2013-04-17 07:02:00,46.2,39.7,30.26,NE,36,4.8,6.9,78,0.00,CLR,,0.01,WeatherDisplay:10.37,2013-04-17 11:02:00,
2013-04-17 07:03:00,46.2,39.7,30.26,NNE,30,3.7,6.9,78,0.00,CLR,,0.01,WeatherDisplay:10.37,2013-04-17 11:03:00,
2013-04-17 07:06:00,46.3,39.8,30.26,NE,38,4.1,5.8,78,0.00,CLR,,0.01,WeatherDisplay:10.37,2013-04-17 11:06:00,
2013-04-17 07:07:00,46.3,39.8,30.26,NE,34,5.0,6.0,78,0.00,CLR,,0.01,WeatherDisplay:10.37,2013-04-17 11:07:00,
2013-04-17 07:09:00,46.3,39.8,30.26,NNE,26,5.2,8.1,78,0.00,CLR,,0.01,WeatherDisplay:10.37,2013-04-17 11:09:00,
2013-04-17 07:12:00,46.3,39.8,30.26,NE,38,5.1,7.0,78,0.00,CLR,,0.01,WeatherDisplay:10.37,2013-04-17 11:12:00,
2013-04-17 07:13:00,46.3,39.8,30.26,ENE,57,5.8,6.9,78,0.00,CLR,,0.01,WeatherDisplay:10.37,2013-04-17 11:13:00,
2013-04-17 07:15:00,46.3,39.8,30.26,NNE,18,3.6,5.8,78,0.00,CLR,,0.01,WeatherDisplay:10.37,2013-04-17 11:15:00,
2013-04-17 07:18:00,46.3,39.8,30.26,North,9,2.6,4.0,78,0.00,CLR,,0.01,WeatherDisplay:10.37,2013-04-17 11:18:00,
2013-04-17 07:20:00,46.3,39.8,30.26,NNE,21,2.7,4.6,78,0.00,CLR,,0.01,WeatherDisplay:10.37,2013-04-17 11:20:00,
2013-04-17 07:23:00,46.3,39.8,30.26,ENE,57,1.7,3.5,78,0.00,CLR,,0.01,WeatherDisplay:10.37,2013-04-17 11:23:00,
2013-04-17 07:25:00,46.3,39.8,30.26,NE,56,3.5,5.0,78,0.00,CLR,,0.01,WeatherDisplay:10.37,2013-04-17 11:25:00,
2013-04-17 07:28:00,46.4,39.9,30.26,NNE,28,5.0,5.8,78,0.00,CLR,,0.01,WeatherDisplay:10.37,2013-04-17 11:28:00,
2013-04-17 07:29:00,46.4,39.9,30.26,NE,40,4.7,8.1,78,0.00,CLR,,0.01,WeatherDisplay:10.37,2013-04-17 11:29:00,
2013-04-17 07:30:00,46.5,40.0,30.26,NE,51,4.8,5.8,78,0.00,CLR,,0.01,WeatherDisplay:10.37,2013-04-17 11:30:00,
2013-04-17 07:33:00,46.6,39.8,30.26,NNE,24,5.4,6.0,77,0.00,CLR,,0.01,WeatherDisplay:10.37,2013-04-17 11:33:00,
2013-04-17 07:34:00,46.6,39.8,30.26,NE,35,6.1,9.2,77,0.00,CLR,,0.01,WeatherDisplay:10.37,2013-04-17 11:34:00,
2013-04-17 07:37:00,46.7,40.2,30.26,NNE,20,4.2,5.8,78,0.00,CLR,,0.01,WeatherDisplay:10.37,2013-04-17 11:37:00,
2013-04-17 07:38:00,46.7,39.9,30.26,NNE,16,5.7,8.1,77,0.00,CLR,,0.01,WeatherDisplay:10.37,2013-04-17 11:38:00,
2013-04-17 07:39:00,46.8,40.0,30.26,NNE,31,5.5,8.1,77,0.00,CLR,,0.01,WeatherDisplay:10.37,2013-04-17 11:39:00,
2013-04-17 07:42:00,47.0,40.2,30.26,NNE,26,5.7,8.1,77,0.00,CLR,,0.01,WeatherDisplay:10.37,2013-04-17 11:42:00,
2013-04-17 07:43:00,47.1,40.3,30.26,NE,43,5.5,9.2,77,0.00,CLR,,0.01,WeatherDisplay:10.37,2013-04-17 11:43:00,
2013-04-17 07:44:00,47.1,40.3,30.26,NNE,15,4.4,5.8,77,0.00,CLR,,0.01,WeatherDisplay:10.37,2013-04-17 11:44:00,
2013-04-17 07:45:00,47.1,40.3,30.25,NNE,28,4.7,8.1,77,0.00,CLR,,0.01,WeatherDisplay:10.37,2013-04-17 11:45:00,
2013-04-17 07:47:00,47.2,40.4,30.26,NNE,31,5.5,9.2,77,0.00,CLR,,0.01,WeatherDisplay:10.37,2013-04-17 11:47:00,
2013-04-17 07:48:00,47.2,40.4,30.26,NNE,15,4.7,8.1,77,0.00,CLR,,0.01,WeatherDisplay:10.37,2013-04-17 11:48:00,
2013-04-17 07:49:00,47.3,40.5,30.26,NE,38,5.1,10.0,77,0.00,CLR,,0.01,WeatherDisplay:10.37,2013-04-17 11:49:00,
2013-04-17 07:50:00,47.3,40.5,30.26,NNE,25,7.1,10.4,77,0.00,CLR,,0.01,WeatherDisplay:10.37,2013-04-17 11:50:00,
2013-04-17 07:52:00,47.5,40.6,30.26,North,11,6.1,6.1,77,0.00,CLR,,0.01,WeatherDisplay:10.37,2013-04-17 11:52:00,
2013-04-17 07:53:00,47.5,40.3,30.26,NE,36,5.8,8.1,76,0.00,CLR,,0.01,WeatherDisplay:10.37,2013-04-17 11:53:00,
2013-04-17 07:54:00,47.6,40.4,30.26,ENE,59,5.6,8.1,76,0.00,CLR,,0.01,WeatherDisplay:10.37,2013-04-17 11:54:00,
2013-04-17 07:55:00,47.6,40.4,30.26,NE,39,5.6,9.0,76,0.00,CLR,,0.01,WeatherDisplay:10.37,2013-04-17 11:55:00,
2013-04-17 07:58:00,47.7,40.5,30.26,NE,49,4.9,8.1,76,0.00,CLR,,0.01,WeatherDisplay:10.37,2013-04-17 11:58:00,
2013-04-17 07:59:00,47.7,40.5,30.25,NNE,19,5.1,7.0,76,0.00,CLR,,0.01,WeatherDisplay:10.37,2013-04-17 11:59:00,
2013-04-17 08:00:00,47.8,40.6,30.25,NE,48,6.7,11.0,76,0.00,CLR,,0.01,WeatherDisplay:10.37,2013-04-17 12:00:00,
2013-04-17 08:03:00,47.9,40.7,30.26,NE,38,4.9,10.4,76,0.00,CLR,,0.01,WeatherDisplay:10.37,2013-04-17 12:03:00,
2013-04-17 08:04:00,47.9,40.7,30.26,ENE,74,5.0,9.2,76,0.00,CLR,,0.01,WeatherDisplay:10.37,2013-04-17 12:04:00,
2013-04-17 08:05:00,48.0,40.8,30.26,ENE,61,6.1,10.4,76,0.00,CLR,,0.01,WeatherDisplay:10.37,2013-04-17 12:05:00,
2013-04-17 08:08:00,48.1,40.9,30.26,ENE,59,6.6,9.2,76,0.00,CLR,,0.01,WeatherDisplay:10.37,2013-04-17 12:08:00,
2013-04-17 08:09:00,48.2,41.0,30.26,NE,42,5.1,10.4,76,0.00,CLR,,0.01,WeatherDisplay:10.37,2013-04-17 12:09:00,
2013-04-17 08:10:00,48.3,41.1,30.26,NE,52,6.1,9.2,76,0.00,CLR,,0.01,WeatherDisplay:10.37,2013-04-17 12:10:00,
2013-04-17 08:13:00,48.5,41.3,30.25,NNE,28,5.8,9.2,76,0.00,CLR,,0.01,WeatherDisplay:10.37,2013-04-17 12:13:00,
2013-04-17 08:14:00,48.5,41.3,30.25,East,84,6.1,10.4,76,0.00,CLR,,0.01,WeatherDisplay:10.37,2013-04-17 12:14:00,
2013-04-17 08:15:00,48.5,41.3,30.26,NNE,28,5.0,8.1,76,0.00,CLR,,0.01,WeatherDisplay:10.37,2013-04-17 12:15:00,
2013-04-17 08:18:00,48.7,41.5,30.26,NNE,26,4.5,6.0,76,0.00,CLR,,0.01,WeatherDisplay:10.37,2013-04-17 12:18:00,
2013-04-17 08:19:00,48.7,41.5,30.26,ENE,65,4.8,7.0,76,0.00,CLR,,0.01,WeatherDisplay:10.37,2013-04-17 12:19:00,
2013-04-17 08:20:00,48.7,41.5,30.26,NNE,27,8.1,11.5,76,0.00,CLR,,0.01,WeatherDisplay:10.37,2013-04-17 12:20:00,
2013-04-17 08:23:00,48.9,41.7,30.25,East,84,6.5,9.2,76,0.00,CLR,,0.01,WeatherDisplay:10.37,2013-04-17 12:23:00,
2013-04-17 08:24:00,48.9,41.7,30.25,NE,37,6.1,9.2,76,0.00,CLR,,0.01,WeatherDisplay:10.37,2013-04-17 12:24:00,
2013-04-17 08:25:00,48.9,41.7,30.25,East,84,4.9,10.4,76,0.00,CLR,,0.01,WeatherDisplay:10.37,2013-04-17 12:25:00,
2013-04-17 08:26:00,49.0,41.8,30.25,ENE,72,4.7,6.9,76,0.00,CLR,,0.01,WeatherDisplay:10.37,2013-04-17 12:26:00,
2013-04-17 08:28:00,49.0,41.4,30.25,NNE,17,6.2,11.5,75,0.00,CLR,,0.01,WeatherDisplay:10.37,2013-04-17 12:28:00,
2013-04-17 08:29:00,49.1,41.5,30.25,ESE,105,5.4,11.5,75,0.00,CLR,,0.01,WeatherDisplay:10.37,2013-04-17 12:29:00,
2013-04-17 08:30:00,49.1,41.5,30.25,East,84,6.1,10.0,75,0.00,CLR,,0.01,WeatherDisplay:10.37,2013-04-17 12:30:00,
2013-04-17 08:31:00,49.2,41.6,30.25,ENE,77,7.4,11.5,75,0.00,CLR,,0.01,WeatherDisplay:10.37,2013-04-17 12:31:00,
2013-04-17 08:33:00,49.3,41.7,30.24,ENE,60,7.8,10.4,75,0.00,CLR,,0.01,WeatherDisplay:10.37,2013-04-17 12:33:00,
2013-04-17 08:35:00,49.4,41.8,30.23,ENE,75,6.5,10.0,75,0.00,CLR,,0.01,WeatherDisplay:10.37,2013-04-17 12:35:00,
2013-04-17 08:36:00,49.4,41.8,30.23,ENE,60,9.3,13.8,75,0.00,CLR,,0.01,WeatherDisplay:10.37,2013-04-17 12:36:00,
2013-04-17 08:38:00,49.6,42.0,30.24,NE,49,9.5,13.8,75,0.00,CLR,,0.01,WeatherDisplay:10.37,2013-04-17 12:38:00,
2013-04-17 08:40:00,49.7,42.1,30.24,ENE,72,7.3,10.4,75,0.00,CLR,,0.01,WeatherDisplay:10.37,2013-04-17 12:40:00,
2013-04-17 08:41:00,49.8,42.2,30.24,ENE,76,7.7,12.7,75,0.00,CLR,,0.01,WeatherDisplay:10.37,2013-04-17 12:41:00,
2013-04-17 08:43:00,50.0,42.4,30.24,East,88,5.2,8.1,75,0.00,CLR,,0.01,WeatherDisplay:10.37,2013-04-17 12:43:00,
2013-04-17 08:45:00,50.1,42.5,30.24,ENE,57,7.1,11.5,75,0.00,CLR,,0.01,WeatherDisplay:10.37,2013-04-17 12:45:00,
2013-04-17 08:46:00,50.2,42.2,30.24,NE,34,5.1,11.5,74,0.00,CLR,,0.01,WeatherDisplay:10.37,2013-04-17 12:46:00,
2013-04-17 08:47:00,50.3,42.3,30.24,ESE,104,9.5,11.5,74,0.00,CLR,,0.01,WeatherDisplay:10.37,2013-04-17 12:47:00,
2013-04-17 08:48:00,50.4,42.4,30.24,East,101,10.0,16.1,74,0.00,CLR,,0.01,WeatherDisplay:10.37,2013-04-17 12:48:00,
2013-04-17 08:50:00,50.5,42.2,30.24,NNE,33,10.7,16.1,73,0.00,CLR,,0.01,WeatherDisplay:10.37,2013-04-17 12:50:00,
2013-04-17 08:51:00,50.5,42.2,30.24,ENE,71,9.3,13.8,73,0.00,CLR,,0.01,WeatherDisplay:10.37,2013-04-17 12:51:00,
2013-04-17 08:52:00,50.5,42.2,30.24,NE,37,9.3,13.8,73,0.00,CLR,,0.01,WeatherDisplay:10.37,2013-04-17 12:52:00,
2013-04-17 08:53:00,50.5,42.5,30.24,North,5,8.3,12.7,74,0.00,CLR,,0.01,WeatherDisplay:10.37,2013-04-17 12:53:00,
2013-04-17 08:55:00,50.7,42.7,30.23,East,93,8.7,11.5,74,0.00,CLR,,0.01,WeatherDisplay:10.37,2013-04-17 12:55:00,
2013-04-17 08:56:00,50.7,42.7,30.23,NE,51,9.0,12.7,74,0.00,CLR,,0.01,WeatherDisplay:10.37,2013-04-17 12:56:00,
2013-04-17 08:57:00,50.8,42.5,30.23,NE,38,9.0,12.7,73,0.00,CLR,,0.01,WeatherDisplay:10.37,2013-04-17 12:57:00,
2013-04-17 08:59:00,50.9,42.9,30.24,ENE,69,5.4,8.1,74,0.00,CLR,,0.01,WeatherDisplay:10.37,2013-04-17 12:59:00,
2013-04-17 09:00:00,51.1,43.1,30.24,NE,42,9.9,15.0,74,0.00,CLR,,0.01,WeatherDisplay:10.37,2013-04-17 13:00:00,
2013-04-17 09:02:00,51.1,42.7,30.24,ENE,78,9.8,13.8,73,0.00,CLR,,0.01,WeatherDisplay:10.37,2013-04-17 13:02:00,
2013-04-17 09:04:00,51.1,42.4,30.24,East,80,10.4,17.3,72,0.00,CLR,,0.01,WeatherDisplay:10.37,2013-04-17 13:04:00,
2013-04-17 09:06:00,51.0,42.6,30.24,East,92,8.8,19.6,73,0.00,CLR,,0.01,WeatherDisplay:10.37,2013-04-17 13:06:00,
2013-04-17 09:07:00,51.0,42.6,30.24,NE,46,11.1,20.0,73,0.00,CLR,,0.01,WeatherDisplay:10.37,2013-04-17 13:07:00,
2013-04-17 09:09:00,51.0,42.6,30.24,ENE,73,8.3,16.1,73,0.00,CLR,,0.01,WeatherDisplay:10.37,2013-04-17 13:09:00,
2013-04-17 09:11:00,50.9,42.6,30.25,NE,51,6.4,10.4,73,0.00,CLR,,0.01,WeatherDisplay:10.37,2013-04-17 13:11:00,
2013-04-17 09:12:00,50.9,42.9,30.25,ESE,119,5.3,10.0,74,0.00,CLR,,0.01,WeatherDisplay:10.37,2013-04-17 13:12:00,
2013-04-17 09:15:00,51.0,43.0,30.24,East,97,10.0,15.0,74,0.00,CLR,,0.01,WeatherDisplay:10.37,2013-04-17 13:15:00,
2013-04-17 09:16:00,51.0,43.0,30.24,ENE,63,7.2,17.3,74,0.00,CLR,,0.01,WeatherDisplay:10.37,2013-04-17 13:16:00,
2013-04-17 09:17:00,51.0,43.0,30.24,East,92,5.6,10.4,74,0.00,CLR,,0.01,WeatherDisplay:10.37,2013-04-17 13:17:00,
2013-04-17 09:18:00,51.1,43.1,30.24,East,96,5.6,9.2,74,0.00,CLR,,0.01,WeatherDisplay:10.37,2013-04-17 13:18:00,
2013-04-17 09:21:00,51.2,43.2,30.24,NE,55,7.9,13.8,74,0.00,CLR,,0.01,WeatherDisplay:10.37,2013-04-17 13:21:00,
2013-04-17 09:22:00,51.2,43.2,30.24,ENE,75,6.3,11.5,74,0.00,CLR,,0.01,WeatherDisplay:10.37,2013-04-17 13:22:00,
2013-04-17 09:23:00,51.3,43.3,30.24,ENE,74,9.7,14.0,74,0.00,CLR,,0.01,WeatherDisplay:10.37,2013-04-17 13:23:00,
2013-04-17 09:27:00,51.3,43.3,30.24,ENE,68,7.9,12.7,74,0.00,CLR,,0.01,WeatherDisplay:10.37,2013-04-17 13:27:00,
2013-04-17 09:28:00,51.2,43.2,30.24,NE,36,10.1,17.3,74,0.00,CLR,,0.01,WeatherDisplay:10.37,2013-04-17 13:28:00,
2013-04-17 09:32:00,51.2,43.2,30.24,ENE,63,8.8,13.8,74,0.00,CLR,,0.01,WeatherDisplay:10.37,2013-04-17 13:32:00,
2013-04-17 09:33:00,51.2,43.2,30.24,ENE,64,6.7,10.4,74,0.00,CLR,,0.01,WeatherDisplay:10.37,2013-04-17 13:33:00,
2013-04-17 09:37:00,51.3,43.3,30.25,East,98,8.4,12.7,74,0.00,CLR,,0.01,WeatherDisplay:10.37,2013-04-17 13:37:00,
2013-04-17 09:38:00,51.3,43.3,30.25,NE,45,7.3,12.7,74,0.00,CLR,,0.01,WeatherDisplay:10.37,2013-04-17 13:38:00,
2013-04-17 09:42:00,51.4,43.7,30.25,ENE,72,7.3,12.7,75,0.00,CLR,,0.01,WeatherDisplay:10.37,2013-04-17 13:42:00,
2013-04-17 09:43:00,51.4,43.7,30.25,East,79,5.1,8.1,75,0.00,CLR,,0.01,WeatherDisplay:10.37,2013-04-17 13:43:00,
2013-04-17 09:44:00,51.5,43.8,30.25,ENE,65,5.8,9.2,75,0.00,CLR,,0.01,WeatherDisplay:10.37,2013-04-17 13:44:00,
2013-04-17 09:47:00,51.5,43.5,30.24,NNE,29,8.0,13.8,74,0.00,CLR,,0.01,WeatherDisplay:10.37,2013-04-17 13:47:00,
2013-04-17 09:48:00,51.5,43.1,30.24,NNE,19,8.8,11.5,73,0.00,CLR,,0.01,WeatherDisplay:10.37,2013-04-17 13:48:00,
2013-04-17 09:49:00,51.5,43.5,30.24,ENE,59,9.5,13.8,74,0.00,CLR,,0.01,WeatherDisplay:10.37,2013-04-17 13:49:00,
2013-04-17 09:53:00,51.4,43.7,30.24,ENE,74,7.2,11.5,75,0.00,CLR,,0.01,WeatherDisplay:10.37,2013-04-17 13:53:00,
2013-04-17 09:54:00,51.4,43.7,30.23,ENE,75,7.6,11.5,75,0.00,CLR,,0.01,WeatherDisplay:10.37,2013-04-17 13:54:00,
2013-04-17 09:58:00,51.5,43.5,30.24,NE,46,9.3,11.0,74,0.00,CLR,,0.01,WeatherDisplay:10.37,2013-04-17 13:58:00,
2013-04-17 09:59:00,51.5,43.5,30.24,NE,53,8.5,10.4,74,0.00,CLR,,0.01,WeatherDisplay:10.37,2013-04-17 13:59:00,
2013-04-17 10:03:00,51.7,43.7,30.25,East,92,10.5,12.7,74,0.00,CLR,,0.01,WeatherDisplay:10.37,2013-04-17 14:03:00,
2013-04-17 10:04:00,51.7,43.7,30.25,East,87,7.4,11.5,74,0.00,CLR,,0.01,WeatherDisplay:10.37,2013-04-17 14:04:00,
2013-04-17 10:08:00,51.6,43.6,30.24,East,96,8.0,13.8,74,0.00,CLR,,0.01,WeatherDisplay:10.37,2013-04-17 14:08:00,
2013-04-17 10:09:00,51.6,43.9,30.24,East,92,8.4,15.0,75,0.00,CLR,,0.01,WeatherDisplay:10.37,2013-04-17 14:09:00,
2013-04-17 10:10:00,51.6,43.6,30.23,NE,46,10.5,16.1,74,0.00,CLR,,0.01,WeatherDisplay:10.37,2013-04-17 14:10:00,
2013-04-17 10:13:00,51.4,43.4,30.23,East,82,7.0,16.1,74,0.00,CLR,,0.01,WeatherDisplay:10.37,2013-04-17 14:13:00,
2013-04-17 10:14:00,51.4,43.7,30.23,NE,55,6.4,9.2,75,0.00,CLR,,0.01,WeatherDisplay:10.37,2013-04-17 14:14:00,
2013-04-17 10:15:00,51.5,43.8,30.24,NE,55,4.7,8.1,75,0.00,CLR,,0.01,WeatherDisplay:10.37,2013-04-17 14:15:00,
2013-04-17 10:18:00,51.9,44.2,30.23,ESE,105,8.8,15.0,75,0.00,CLR,,0.01,WeatherDisplay:10.37,2013-04-17 14:18:00,
2013-04-17 10:19:00,52.0,44.3,30.23,East,90,9.2,12.7,75,0.00,CLR,,0.01,WeatherDisplay:10.37,2013-04-17 14:19:00,
2013-04-17 10:20:00,52.1,44.4,30.23,ENE,76,3.5,8.1,75,0.00,CLR,,0.01,WeatherDisplay:10.37,2013-04-17 14:20:00,
2013-04-17 10:23:00,52.2,44.5,30.23,ENE,78,7.2,12.7,75,0.00,CLR,,0.01,WeatherDisplay:10.37,2013-04-17 14:23:00,
2013-04-17 10:24:00,52.2,44.5,30.23,East,100,9.3,15.0,75,0.00,CLR,,0.01,WeatherDisplay:10.37,2013-04-17 14:24:00,
2013-04-17 10:25:00,52.2,44.2,30.23,ENE,78,7.4,13.8,74,0.00,CLR,,0.01,WeatherDisplay:10.37,2013-04-17 14:25:00,
2013-04-17 10:28:00,52.1,44.1,30.22,NE,34,5.6,12.7,74,0.00,CLR,,0.01,WeatherDisplay:10.37,2013-04-17 14:28:00,
2013-04-17 10:29:00,52.1,44.4,30.23,ENE,70,8.9,10.4,75,0.00,CLR,,0.01,WeatherDisplay:10.37,2013-04-17 14:29:00,
2013-04-17 10:30:00,52.1,44.1,30.23,ESE,121,9.0,12.7,74,0.00,CLR,,0.01,WeatherDisplay:10.37,2013-04-17 14:30:00,
2013-04-17 10:33:00,52.1,44.4,30.23,ENE,63,8.7,10.4,75,0.00,CLR,,0.01,WeatherDisplay:10.37,2013-04-17 14:33:00,
2013-04-17 10:34:00,52.1,44.1,30.23,ENE,75,10.9,15.0,74,0.00,CLR,,0.01,WeatherDisplay:10.37,2013-04-17 14:34:00,
2013-04-17 10:35:00,52.0,44.0,30.23,ENE,65,9.8,16.1,74,0.00,CLR,,0.01,WeatherDisplay:10.37,2013-04-17 14:35:00,
2013-04-17 10:36:00,52.0,44.0,30.23,ENE,71,8.6,11.5,74,0.00,CLR,,0.01,WeatherDisplay:10.37,2013-04-17 14:36:00,
2013-04-17 10:39:00,52.1,44.1,30.23,East,88,10.4,15.0,74,0.00,CLR,,0.01,WeatherDisplay:10.37,2013-04-17 14:39:00,
2013-04-17 10:40:00,52.1,44.1,30.23,ESE,113,9.6,12.7,74,0.00,CLR,,0.01,WeatherDisplay:10.37,2013-04-17 14:40:00,
2013-04-17 10:41:00,52.1,44.1,30.23,ESE,111,12.7,19.6,74,0.00,CLR,,0.01,WeatherDisplay:10.37,2013-04-17 14:41:00,
2013-04-17 10:44:00,52.1,44.4,30.23,ESE,102,6.4,11.5,75,0.00,CLR,,0.01,WeatherDisplay:10.37,2013-04-17 14:44:00,
2013-04-17 10:45:00,52.1,44.4,30.24,East,81,7.8,11.5,75,0.00,CLR,,0.01,WeatherDisplay:10.37,2013-04-17 14:45:00,
2013-04-17 10:46:00,52.1,44.4,30.23,ENE,58,10.7,12.0,75,0.00,CLR,,0.01,WeatherDisplay:10.37,2013-04-17 14:46:00,
2013-04-17 10:47:00,52.1,44.1,30.24,ESE,111,7.5,13.0,74,0.00,CLR,,0.01,WeatherDisplay:10.37,2013-04-17 14:47:00,
2013-04-17 10:49:00,52.2,44.9,30.24,NE,34,7.7,12.7,76,0.00,CLR,,0.01,WeatherDisplay:10.37,2013-04-17 14:49:00,
2013-04-17 10:50:00,52.2,44.9,30.24,ENE,61,6.3,11.5,76,0.00,CLR,,0.01,WeatherDisplay:10.37,2013-04-17 14:50:00,
2013-04-17 10:51:00,52.3,44.6,30.24,East,81,6.9,11.5,75,0.00,CLR,,0.01,WeatherDisplay:10.37,2013-04-17 14:51:00,
2013-04-17 10:52:00,52.4,44.7,30.24,ENE,62,5.8,12.7,75,0.00,CLR,,0.01,WeatherDisplay:10.37,2013-04-17 14:52:00,
2013-04-17 10:54:00,52.4,44.7,30.23,NNE,24,9.5,13.8,75,0.00,CLR,,0.01,WeatherDisplay:10.37,2013-04-17 14:54:00,
2013-04-17 10:55:00,52.4,44.7,30.24,NE,47,9.0,12.7,75,0.00,CLR,,0.01,WeatherDisplay:10.37,2013-04-17 14:55:00,
2013-04-17 10:56:00,52.4,44.7,30.24,ENE,66,9.9,17.3,75,0.00,CLR,,0.01,WeatherDisplay:10.37,2013-04-17 14:56:00,
2013-04-17 10:57:00,52.4,44.7,30.23,NE,43,6.8,16.1,75,0.00,CLR,,0.01,WeatherDisplay:10.37,2013-04-17 14:57:00,
2013-04-17 10:59:00,52.4,44.7,30.23,ENE,61,8.4,11.5,75,0.00,CLR,,0.01,WeatherDisplay:10.37,2013-04-17 14:59:00,
2013-04-17 11:00:00,52.4,44.7,30.23,East,84,8.2,15.0,75,0.00,CLR,,0.01,WeatherDisplay:10.37,2013-04-17 15:00:00,
2013-04-17 11:02:00,52.3,44.6,30.23,NE,56,9.2,15.0,75,0.00,CLR,,0.01,WeatherDisplay:10.37,2013-04-17 15:02:00,
2013-04-17 11:03:00,52.3,44.6,30.23,ENE,76,8.2,11.5,75,0.00,CLR,,0.01,WeatherDisplay:10.37,2013-04-17 15:03:00,
2013-04-17 11:04:00,52.2,44.9,30.23,ENE,57,5.7,11.5,76,0.00,CLR,,0.01,WeatherDisplay:10.37,2013-04-17 15:04:00,
2013-04-17 11:05:00,52.2,44.9,30.23,East,92,6.7,9.2,76,0.00,CLR,,0.01,WeatherDisplay:10.37,2013-04-17 15:05:00,
2013-04-17 11:07:00,52.2,44.9,30.23,ENE,75,4.6,8.0,76,0.00,CLR,,0.01,WeatherDisplay:10.37,2013-04-17 15:07:00,
2013-04-17 11:08:00,52.3,45.0,30.24,ENE,76,7.7,10.4,76,0.00,CLR,,0.01,WeatherDisplay:10.37,2013-04-17 15:08:00,
2013-04-17 11:09:00,52.3,45.0,30.24,East,93,7.5,11.5,76,0.00,CLR,,0.01,WeatherDisplay:10.37,2013-04-17 15:09:00,
2013-04-17 11:12:00,52.2,45.2,30.24,ENE,78,3.9,6.9,77,0.00,CLR,,0.01,WeatherDisplay:10.37,2013-04-17 15:12:00,
2013-04-17 11:13:00,52.2,45.2,30.24,NE,39,2.0,4.0,77,0.00,CLR,,0.01,WeatherDisplay:10.37,2013-04-17 15:13:00,
2013-04-17 11:14:00,52.3,45.3,30.24,ENE,73,4.9,10.0,77,0.00,CLR,,0.01,WeatherDisplay:10.37,2013-04-17 15:14:00,
2013-04-17 11:17:00,52.3,45.3,30.24,ENE,71,7.9,11.5,77,0.00,CLR,,0.01,WeatherDisplay:10.37,2013-04-17 15:17:00,
2013-04-17 11:18:00,52.3,45.3,30.24,ENE,63,5.7,11.5,77,0.00,CLR,,0.01,WeatherDisplay:10.37,2013-04-17 15:18:00,
2013-04-17 11:19:00,52.2,45.2,30.24,East,98,7.4,13.0,77,0.00,CLR,,0.01,WeatherDisplay:10.37,2013-04-17 15:19:00,
2013-04-17 11:22:00,52.2,45.2,30.24,East,90,5.6,9.2,77,0.00,CLR,,0.01,WeatherDisplay:10.37,2013-04-17 15:22:00,
2013-04-17 11:23:00,52.3,45.3,30.24,East,80,4.3,9.2,77,0.00,CLR,,0.01,WeatherDisplay:10.37,2013-04-17 15:23:00,
2013-04-17 11:25:00,52.2,45.5,30.23,ENE,71,9.1,12.7,78,0.00,CLR,,0.01,WeatherDisplay:10.37,2013-04-17 15:25:00,
2013-04-17 11:28:00,52.3,45.6,30.23,ENE,67,7.6,15.0,78,0.00,CLR,,0.01,WeatherDisplay:10.37,2013-04-17 15:28:00,
2013-04-17 11:29:00,52.3,45.6,30.23,ENE,57,10.3,15.0,78,0.00,CLR,,0.01,WeatherDisplay:10.37,2013-04-17 15:29:00,
2013-04-17 11:30:00,52.3,45.6,30.23,ENE,69,8.0,13.8,78,0.00,CLR,,0.01,WeatherDisplay:10.37,2013-04-17 15:30:00,
2013-04-17 11:33:00,52.4,45.7,30.23,East,86,9.0,16.1,78,0.00,CLR,,0.01,WeatherDisplay:10.37,2013-04-17 15:33:00,
2013-04-17 11:34:00,52.4,45.7,30.23,ENE,72,9.1,11.5,78,0.00,CLR,,0.01,WeatherDisplay:10.37,2013-04-17 15:34:00,
2013-04-17 11:35:00,52.5,45.8,30.23,NNE,28,5.1,9.2,78,0.00,CLR,,0.01,WeatherDisplay:10.37,2013-04-17 15:35:00,
2013-04-17 11:38:00,52.6,45.9,30.22,NE,55,9.8,13.8,78,0.00,CLR,,0.01,WeatherDisplay:10.37,2013-04-17 15:38:00,
2013-04-17 11:39:00,52.6,45.9,30.22,ENE,76,8.5,15.0,78,0.00,CLR,,0.01,WeatherDisplay:10.37,2013-04-17 15:39:00,
2013-04-17 11:40:00,52.6,45.9,30.22,ENE,68,7.9,11.5,78,0.00,CLR,,0.01,WeatherDisplay:10.37,2013-04-17 15:40:00,
2013-04-17 11:44:00,52.6,45.9,30.22,ENE,66,5.8,13.8,78,0.00,CLR,,0.01,WeatherDisplay:10.37,2013-04-17 15:44:00,
2013-04-17 11:45:00,52.7,46.0,30.22,ESE,109,5.0,9.0,78,0.00,CLR,,0.01,WeatherDisplay:10.37,2013-04-17 15:45:00,
2013-04-17 11:49:00,52.8,46.1,30.22,ENE,73,7.8,13.8,78,0.00,CLR,,0.01,WeatherDisplay:10.37,2013-04-17 15:49:00,
2013-04-17 11:50:00,52.8,46.1,30.22,NNE,19,8.5,11.5,78,0.00,CLR,,0.01,WeatherDisplay:10.37,2013-04-17 15:50:00,
2013-04-17 11:54:00,52.7,46.0,30.22,East,96,8.6,12.7,78,0.00,CLR,,0.01,WeatherDisplay:10.37,2013-04-17 15:54:00,
2013-04-17 11:55:00,52.7,46.0,30.22,ENE,75,6.6,11.5,78,0.00,CLR,,0.01,WeatherDisplay:10.37,2013-04-17 15:55:00,
2013-04-17 11:59:00,52.7,46.0,30.22,NNE,17,7.9,15.0,78,0.00,CLR,,0.01,WeatherDisplay:10.37,2013-04-17 15:59:00,
2013-04-17 12:00:00,52.7,46.0,30.22,ENE,65,7.0,15.0,78,0.00,CLR,,0.01,WeatherDisplay:10.37,2013-04-17 16:00:00,
2013-04-17 12:04:00,52.6,45.9,30.22,NNE,32,6.5,12.7,78,0.00,CLR,,0.01,WeatherDisplay:10.37,2013-04-17 16:04:00,
2013-04-17 12:05:00,52.6,45.9,30.22,NE,38,7.1,12.7,78,0.00,CLR,,0.01,WeatherDisplay:10.37,2013-04-17 16:05:00,
2013-04-17 12:09:00,52.5,45.8,30.22,ENE,76,8.0,13.8,78,0.00,CLR,,0.01,WeatherDisplay:10.37,2013-04-17 16:09:00,
2013-04-17 12:10:00,52.5,45.8,30.22,ENE,68,8.0,14.0,78,0.00,CLR,,0.01,WeatherDisplay:10.37,2013-04-17 16:10:00,
2013-04-17 12:11:00,52.4,46.1,30.23,East,81,5.7,8.1,79,0.00,CLR,,0.01,WeatherDisplay:10.37,2013-04-17 16:11:00,
2013-04-17 12:14:00,52.4,46.1,30.22,East,98,9.2,11.5,79,0.00,CLR,,0.01,WeatherDisplay:10.37,2013-04-17 16:14:00,
2013-04-17 12:15:00,52.4,46.1,30.22,ENE,62,9.0,12.0,79,0.00,CLR,,0.01,WeatherDisplay:10.37,2013-04-17 16:15:00,
2013-04-17 12:16:00,52.4,46.1,30.22,ENE,57,8.6,12.7,79,0.00,CLR,,0.01,WeatherDisplay:10.37,2013-04-17 16:16:00,
2013-04-17 12:19:00,52.3,46.3,30.22,ENE,73,7.9,11.5,80,0.00,CLR,,0.01,WeatherDisplay:10.37,2013-04-17 16:19:00,
2013-04-17 12:20:00,52.3,46.3,30.22,NE,36,7.9,13.8,80,0.00,CLR,,0.01,WeatherDisplay:10.37,2013-04-17 16:20:00,
2013-04-17 12:21:00,52.3,46.3,30.22,ENE,68,6.3,10.4,80,0.00,CLR,,0.01,WeatherDisplay:10.37,2013-04-17 16:21:00,
2013-04-17 12:25:00,52.4,46.4,30.21,ENE,65,8.9,15.0,80,0.00,CLR,,0.01,WeatherDisplay:10.37,2013-04-17 16:25:00,
2013-04-17 12:26:00,52.4,46.4,30.21,ENE,61,8.2,11.5,80,0.00,CLR,,0.01,WeatherDisplay:10.37,2013-04-17 16:26:00,
2013-04-17 12:27:00,52.4,46.4,30.21,ENE,74,9.3,12.7,80,0.00,CLR,,0.01,WeatherDisplay:10.37,2013-04-17 16:27:00,
2013-04-17 12:30:00,52.4,46.4,30.21,NNE,24,7.7,10.4,80,0.00,CLR,,0.01,WeatherDisplay:10.37,2013-04-17 16:30:00,
2013-04-17 12:32:00,52.4,46.4,30.21,ENE,64,6.5,10.4,80,0.00,CLR,,0.01,WeatherDisplay:10.37,2013-04-17 16:32:00,
2013-04-17 12:35:00,52.4,46.4,30.21,ENE,58,8.4,12.7,80,0.00,CLR,,0.01,WeatherDisplay:10.37,2013-04-17 16:35:00,
2013-04-17 12:37:00,52.4,46.4,30.21,East,95,5.9,10.4,80,0.00,CLR,,0.01,WeatherDisplay:10.37,2013-04-17 16:37:00,
2013-04-17 12:40:00,52.4,46.7,30.20,NE,49,3.6,8.0,81,0.00,CLR,,0.01,WeatherDisplay:10.37,2013-04-17 16:40:00,
2013-04-17 12:41:00,52.4,46.7,30.20,NNE,28,4.2,6.9,81,0.00,CLR,,0.01,WeatherDisplay:10.37,2013-04-17 16:41:00,
2013-04-17 12:42:00,52.4,46.4,30.20,NE,37,6.7,8.1,80,0.00,CLR,,0.01,WeatherDisplay:10.37,2013-04-17 16:42:00,
2013-04-17 12:45:00,52.4,46.7,30.20,NE,55,5.3,6.9,81,0.00,CLR,,0.01,WeatherDisplay:10.37,2013-04-17 16:45:00,
2013-04-17 12:46:00,52.4,46.7,30.20,East,84,5.2,11.5,81,0.00,CLR,,0.01,WeatherDisplay:10.37,2013-04-17 16:46:00,
2013-04-17 12:47:00,52.4,46.4,30.20,ESE,118,6.7,13.8,80,0.00,CLR,,0.01,WeatherDisplay:10.37,2013-04-17 16:47:00,
2013-04-17 12:51:00,52.4,46.4,30.19,NE,51,8.8,13.8,80,0.00,CLR,,0.01,WeatherDisplay:10.37,2013-04-17 16:51:00,
2013-04-17 12:52:00,52.4,46.4,30.19,ENE,71,6.2,10.0,80,0.00,CLR,,0.01,WeatherDisplay:10.37,2013-04-17 16:52:00,
2013-04-17 12:53:00,52.4,46.4,30.19,ENE,67,7.3,11.5,80,0.00,CLR,,0.01,WeatherDisplay:10.37,2013-04-17 16:53:00,
2013-04-17 12:56:00,52.5,46.5,30.19,NNE,31,5.4,8.0,80,0.00,CLR,,0.01,WeatherDisplay:10.37,2013-04-17 16:56:00,
2013-04-17 12:57:00,52.6,46.6,30.19,ENE,71,5.4,8.1,80,0.00,CLR,,0.01,WeatherDisplay:10.37,2013-04-17 16:57:00,
2013-04-17 12:58:00,52.6,46.6,30.19,NE,38,7.9,8.1,80,0.00,CLR,,0.01,WeatherDisplay:10.37,2013-04-17 16:58:00,
2013-04-17 13:01:00,52.8,46.5,30.19,East,84,8.9,13.8,79,0.00,CLR,,0.01,WeatherDisplay:10.37,2013-04-17 17:01:00,
2013-04-17 13:02:00,52.8,46.8,30.19,ENE,76,6.6,10.4,80,0.00,CLR,,0.01,WeatherDisplay:10.37,2013-04-17 17:02:00,
2013-04-17 13:03:00,52.8,46.8,30.18,ENE,76,5.8,11.5,80,0.00,CLR,,0.01,WeatherDisplay:10.37,2013-04-17 17:03:00,
2013-04-17 13:04:00,52.8,46.8,30.18,ENE,63,8.2,15.0,80,0.00,CLR,,0.01,WeatherDisplay:10.37,2013-04-17 17:04:00,
2013-04-17 13:06:00,52.9,46.9,30.18,NE,54,8.0,9.2,80,0.00,CLR,,0.01,WeatherDisplay:10.37,2013-04-17 17:06:00,
2013-04-17 13:07:00,53.0,47.0,30.18,ENE,57,4.7,8.1,80,0.00,CLR,,0.01,WeatherDisplay:10.37,2013-04-17 17:07:00,
2013-04-17 13:08:00,53.0,47.0,30.18,East,85,7.6,10.4,80,0.00,CLR,,0.01,WeatherDisplay:10.37,2013-04-17 17:08:00,
2013-04-17 13:09:00,53.0,47.0,30.18,NE,42,8.6,11.0,80,0.00,CLR,,0.01,WeatherDisplay:10.37,2013-04-17 17:09:00,
2013-04-17 13:12:00,53.0,47.0,30.18,NE,39,9.0,16.1,80,0.00,CLR,,0.01,WeatherDisplay:10.37,2013-04-17 17:12:00,
2013-04-17 13:13:00,53.0,47.0,30.18,East,90,12.1,17.3,80,0.00,CLR,,0.01,WeatherDisplay:10.37,2013-04-17 17:13:00,
2013-04-17 13:14:00,52.9,46.9,30.17,NE,40,13.9,17.3,80,0.00,CLR,,0.01,WeatherDisplay:10.37,2013-04-17 17:14:00,
2013-04-17 13:17:00,52.9,46.9,30.17,NNE,30,7.8,11.5,80,0.00,CLR,,0.01,WeatherDisplay:10.37,2013-04-17 17:17:00,
2013-04-17 13:18:00,53.0,47.0,30.17,ENE,65,7.3,11.5,80,0.00,CLR,,0.01,WeatherDisplay:10.37,2013-04-17 17:18:00,
2013-04-17 13:19:00,53.0,47.0,30.17,NNE,27,4.6,11.5,80,0.00,CLR,,0.01,WeatherDisplay:10.37,2013-04-17 17:19:00,
2013-04-17 13:22:00,53.0,47.0,30.17,East,80,8.7,16.1,80,0.00,CLR,,0.01,WeatherDisplay:10.37,2013-04-17 17:22:00,
2013-04-17 13:24:00,53.0,47.0,30.17,North,11,8.5,16.1,80,0.00,CLR,,0.01,WeatherDisplay:10.37,2013-04-17 17:24:00,
2013-04-17 13:27:00,53.1,47.1,30.17,ENE,70,8.3,11.5,80,0.00,CLR,,0.01,WeatherDisplay:10.37,2013-04-17 17:27:00,
2013-04-17 13:28:00,53.1,47.1,30.17,NE,51,8.2,13.8,80,0.00,CLR,,0.01,WeatherDisplay:10.37,2013-04-17 17:28:00,
2013-04-17 13:29:00,53.1,47.1,30.17,ENE,74,7.0,11.5,80,0.00,CLR,,0.01,WeatherDisplay:10.37,2013-04-17 17:29:00,
2013-04-17 13:30:00,53.1,47.1,30.17,ENE,65,7.0,14.0,80,0.00,CLR,,0.01,WeatherDisplay:10.37,2013-04-17 17:30:00,
2013-04-17 13:32:00,53.3,47.3,30.17,ESE,103,8.6,11.5,80,0.00,CLR,,0.01,WeatherDisplay:10.37,2013-04-17 17:32:00,
2013-04-17 13:33:00,53.3,47.3,30.17,ENE,70,5.5,11.5,80,0.00,CLR,,0.01,WeatherDisplay:10.37,2013-04-17 17:33:00,
2013-04-17 13:34:00,53.3,47.6,30.17,ENE,61,6.0,11.5,81,0.00,CLR,,0.01,WeatherDisplay:10.37,2013-04-17 17:34:00,
2013-04-17 13:35:00,53.4,47.7,30.17,NE,51,5.7,11.5,81,0.00,CLR,,0.01,WeatherDisplay:10.37,2013-04-17 17:35:00,
2013-04-17 13:37:00,53.6,47.6,30.17,East,94,7.4,9.2,80,0.00,CLR,,0.01,WeatherDisplay:10.37,2013-04-17 17:37:00,
2013-04-17 13:38:00,53.6,47.6,30.17,ENE,78,8.3,12.7,80,0.00,CLR,,0.01,WeatherDisplay:10.37,2013-04-17 17:38:00,
2013-04-17 13:39:00,53.7,47.7,30.17,ENE,67,8.1,14.0,80,0.00,CLR,,0.01,WeatherDisplay:10.37,2013-04-17 17:39:00,
2013-04-17 13:40:00,53.7,47.7,30.17,ESE,107,8.7,13.8,80,0.00,CLR,,0.01,WeatherDisplay:10.37,2013-04-17 17:40:00,
2013-04-17 13:43:00,53.9,47.5,30.16,ENE,74,7.7,11.5,79,0.00,CLR,,0.01,WeatherDisplay:10.37,2013-04-17 17:43:00,
2013-04-17 13:44:00,53.9,47.5,30.16,East,80,11.4,14.0,79,0.00,CLR,,0.01,WeatherDisplay:10.37,2013-04-17 17:44:00,
2013-04-17 13:45:00,53.9,47.5,30.16,NE,53,10.8,16.1,79,0.00,CLR,,0.01,WeatherDisplay:10.37,2013-04-17 17:45:00,
2013-04-17 13:48:00,54.1,47.7,30.16,East,101,7.8,10.4,79,0.00,CLR,,0.01,WeatherDisplay:10.37,2013-04-17 17:48:00,
2013-04-17 13:49:00,54.1,47.7,30.16,East,82,6.8,10.4,79,0.00,CLR,,0.01,WeatherDisplay:10.37,2013-04-17 17:49:00,
2013-04-17 13:50:00,54.1,47.7,30.16,NE,47,7.9,10.4,79,0.00,CLR,,0.01,WeatherDisplay:10.37,2013-04-17 17:50:00,
2013-04-17 13:53:00,54.2,47.8,30.16,East,97,4.8,9.0,79,0.00,CLR,,0.01,WeatherDisplay:10.37,2013-04-17 17:53:00,
2013-04-17 13:54:00,54.3,47.9,30.16,NE,45,8.6,12.7,79,0.00,CLR,,0.01,WeatherDisplay:10.37,2013-04-17 17:54:00,
2013-04-17 13:55:00,54.4,47.7,30.16,NE,47,7.4,12.7,78,0.00,CLR,,0.01,WeatherDisplay:10.37,2013-04-17 17:55:00,
2013-04-17 13:58:00,54.4,47.7,30.16,East,85,11.2,13.8,78,0.00,CLR,,0.01,WeatherDisplay:10.37,2013-04-17 17:58:00,
2013-04-17 13:59:00,54.4,47.7,30.16,NNE,32,9.5,18.4,78,0.00,CLR,,0.01,WeatherDisplay:10.37,2013-04-17 17:59:00,
2013-04-17 14:00:00,54.4,47.3,30.16,East,80,9.3,15.0,77,0.00,CLR,,0.01,WeatherDisplay:10.37,2013-04-17 18:00:00,
2013-04-17 14:03:00,54.4,47.7,30.17,East,89,6.0,12.7,78,0.00,CLR,,0.01,WeatherDisplay:10.37,2013-04-17 18:03:00,
2013-04-17 14:04:00,54.4,47.7,30.17,ESE,123,5.3,10.4,78,0.00,CLR,,0.01,WeatherDisplay:10.37,2013-04-17 18:04:00,
2013-04-17 14:05:00,54.4,47.3,30.17,ENE,73,11.2,19.6,77,0.00,CLR,,0.01,WeatherDisplay:10.37,2013-04-17 18:05:00,
2013-04-17 14:06:00,54.4,47.7,30.17,NE,48,8.2,16.1,78,0.00,CLR,,0.01,WeatherDisplay:10.37,2013-04-17 18:06:00,
2013-04-17 14:08:00,54.4,47.7,30.17,NE,43,6.2,10.4,78,0.00,CLR,,0.01,WeatherDisplay:10.37,2013-04-17 18:08:00,
2013-04-17 14:09:00,54.5,47.8,30.17,ENE,60,8.3,11.5,78,0.00,CLR,,0.01,WeatherDisplay:10.37,2013-04-17 18:09:00,
2013-04-17 14:10:00,54.5,47.8,30.16,East,82,5.9,10.4,78,0.00,CLR,,0.01,WeatherDisplay:10.37,2013-04-17 18:10:00,
2013-04-17 14:12:00,54.5,47.4,30.16,ENE,62,8.6,15.0,77,0.00,CLR,,0.01,WeatherDisplay:10.37,2013-04-17 18:12:00,
2013-04-17 14:13:00,54.5,47.8,30.16,East,88,5.3,11.5,78,0.00,CLR,,0.01,WeatherDisplay:10.37,2013-04-17 18:13:00,
2013-04-17 14:14:00,54.5,47.4,30.16,East,88,5.8,10.4,77,0.00,CLR,,0.01,WeatherDisplay:10.37,2013-04-17 18:14:00,
2013-04-17 14:15:00,54.5,47.8,30.16,ENE,71,6.4,10.4,78,0.00,CLR,,0.01,WeatherDisplay:10.37,2013-04-17 18:15:00,
2013-04-17 14:17:00,54.5,47.4,30.16,NNE,24,5.2,8.1,77,0.00,CLR,,0.01,WeatherDisplay:10.37,2013-04-17 18:17:00,
2013-04-17 14:18:00,54.4,47.3,30.16,ENE,70,7.9,9.2,77,0.00,CLR,,0.01,WeatherDisplay:10.37,2013-04-17 18:18:00,
2013-04-17 14:19:00,54.4,47.7,30.16,East,87,5.4,11.5,78,0.00,CLR,,0.01,WeatherDisplay:10.37,2013-04-17 18:19:00,
2013-04-17 14:21:00,54.4,47.7,30.16,ENE,59,5.3,11.5,78,0.00,CLR,,0.01,WeatherDisplay:10.37,2013-04-17 18:21:00,
2013-04-17 14:22:00,54.4,47.7,30.16,NE,46,3.8,6.9,78,0.00,CLR,,0.01,WeatherDisplay:10.37,2013-04-17 18:22:00,
2013-04-17 14:23:00,54.4,47.7,30.16,ENE,64,4.8,8.1,78,0.00,CLR,,0.01,WeatherDisplay:10.37,2013-04-17 18:23:00,
2013-04-17 14:25:00,54.4,47.7,30.16,East,81,3.0,12.0,78,0.00,CLR,,0.01,WeatherDisplay:10.37,2013-04-17 18:25:00,
2013-04-17 14:26:00,54.3,47.6,30.16,ENE,69,7.0,11.5,78,0.00,CLR,,0.01,WeatherDisplay:10.37,2013-04-17 18:26:00,
2013-04-17 14:27:00,54.3,47.6,30.16,East,90,10.2,16.1,78,0.00,CLR,,0.01,WeatherDisplay:10.37,2013-04-17 18:27:00,
2013-04-17 14:29:00,54.2,47.5,30.15,ENE,69,9.9,15.0,78,0.00,CLR,,0.01,WeatherDisplay:10.37,2013-04-17 18:29:00,
2013-04-17 14:30:00,54.2,47.5,30.15,East,80,8.5,13.0,78,0.00,CLR,,0.01,WeatherDisplay:10.37,2013-04-17 18:30:00,
2013-04-17 14:31:00,54.1,47.4,30.15,NE,49,7.6,15.0,78,0.00,CLR,,0.01,WeatherDisplay:10.37,2013-04-17 18:31:00,
2013-04-17 14:32:00,54.1,47.4,30.15,ENE,69,10.7,16.0,78,0.00,CLR,,0.01,WeatherDisplay:10.37,2013-04-17 18:32:00,
2013-04-17 14:34:00,54.0,47.3,30.15,East,89,11.3,15.0,78,0.00,CLR,,0.01,WeatherDisplay:10.37,2013-04-17 18:34:00,
2013-04-17 14:36:00,54.0,47.3,30.15,ENE,71,11.6,16.1,78,0.00,CLR,,0.01,WeatherDisplay:10.37,2013-04-17 18:36:00,
2013-04-17 14:37:00,54.0,47.0,30.15,East,88,11.6,13.8,77,0.00,CLR,,0.01,WeatherDisplay:10.37,2013-04-17 18:37:00,
2013-04-17 14:39:00,54.1,47.4,30.15,East,88,8.7,9.2,78,0.00,CLR,,0.01,WeatherDisplay:10.37,2013-04-17 18:39:00,
2013-04-17 14:42:00,54.1,47.4,30.15,ENE,67,10.9,18.4,78,0.00,CLR,,0.01,WeatherDisplay:10.37,2013-04-17 18:42:00,
2013-04-17 14:43:00,54.2,47.5,30.15,SE,129,6.6,11.5,78,0.00,CLR,,0.01,WeatherDisplay:10.37,2013-04-17 18:43:00,
2013-04-17 14:44:00,54.2,47.5,30.14,East,97,5.7,16.1,78,0.00,CLR,,0.01,WeatherDisplay:10.37,2013-04-17 18:44:00,
2013-04-17 14:47:00,54.3,47.2,30.14,East,95,9.1,13.8,77,0.00,CLR,,0.01,WeatherDisplay:10.37,2013-04-17 18:47:00,
2013-04-17 14:48:00,54.4,47.3,30.14,East,88,12.7,19.6,77,0.00,CLR,,0.01,WeatherDisplay:10.37,2013-04-17 18:48:00,
2013-04-17 14:50:00,54.4,47.3,30.13,East,82,9.5,15.0,77,0.00,CLR,,0.01,WeatherDisplay:10.37,2013-04-17 18:50:00,
2013-04-17 14:52:00,54.5,47.4,30.13,NE,44,7.9,12.0,77,0.00,CLR,,0.01,WeatherDisplay:10.37,2013-04-17 18:52:00,
2013-04-17 14:53:00,54.6,47.5,30.12,East,92,7.0,11.5,77,0.00,CLR,,0.01,WeatherDisplay:10.37,2013-04-17 18:53:00,
2013-04-17 14:54:00,54.6,47.5,30.12,East,80,5.7,11.5,77,0.00,CLR,,0.01,WeatherDisplay:10.37,2013-04-17 18:54:00,
2013-04-17 14:55:00,54.6,47.5,30.12,NE,52,10.5,15.0,77,0.00,CLR,,0.01,WeatherDisplay:10.37,2013-04-17 18:55:00,
2013-04-17 14:57:00,54.7,47.6,30.12,East,80,5.9,10.4,77,0.00,CLR,,0.01,WeatherDisplay:10.37,2013-04-17 18:57:00,
2013-04-17 14:58:00,54.7,47.6,30.12,ESE,111,6.1,9.2,77,0.00,CLR,,0.01,WeatherDisplay:10.37,2013-04-17 18:58:00,
2013-04-17 14:59:00,54.7,47.6,30.12,East,96,9.9,19.6,77,0.00,CLR,,0.01,WeatherDisplay:10.37,2013-04-17 18:59:00,
2013-04-17 15:00:00,54.8,47.7,30.12,ENE,69,9.0,15.0,77,0.00,CLR,,0.01,WeatherDisplay:10.37,2013-04-17 19:00:00,
2013-04-17 15:02:00,54.8,47.7,30.12,East,84,10.1,16.1,77,0.00,CLR,,0.01,WeatherDisplay:10.37,2013-04-17 19:02:00,
2013-04-17 15:03:00,54.8,47.7,30.12,East,96,7.8,13.0,77,0.00,CLR,,0.01,WeatherDisplay:10.37,2013-04-17 19:03:00,
2013-04-17 15:04:00,54.8,47.7,30.12,NE,36,11.3,18.4,77,0.00,CLR,,0.01,WeatherDisplay:10.37,2013-04-17 19:04:00,
2013-04-17 15:05:00,54.8,47.4,30.12,East,86,9.3,17.3,76,0.00,CLR,,0.01,WeatherDisplay:10.37,2013-04-17 19:05:00,
2013-04-17 15:07:00,54.8,47.4,30.12,East,80,9.0,13.8,76,0.00,CLR,,0.01,WeatherDisplay:10.37,2013-04-17 19:07:00,
2013-04-17 15:08:00,54.8,47.4,30.12,East,80,10.7,15.0,76,0.00,CLR,,0.01,WeatherDisplay:10.37,2013-04-17 19:08:00,
2013-04-17 15:09:00,54.8,47.4,30.12,ESE,103,9.8,17.3,76,0.00,CLR,,0.01,WeatherDisplay:10.37,2013-04-17 19:09:00,
2013-04-17 15:12:00,54.8,47.7,30.12,ESE,108,8.7,12.7,77,0.00,CLR,,0.01,WeatherDisplay:10.37,2013-04-17 19:12:00,
2013-04-17 15:14:00,54.9,47.8,30.12,ENE,65,6.7,8.1,77,0.00,CLR,,0.01,WeatherDisplay:10.37,2013-04-17 19:14:00,
2013-04-17 15:15:00,54.9,47.8,30.12,ENE,77,5.5,11.5,77,0.00,CLR,,0.01,WeatherDisplay:10.37,2013-04-17 19:15:00,
2013-04-17 15:17:00,54.9,47.8,30.12,East,87,7.2,15.0,77,0.00,CLR,,0.01,WeatherDisplay:10.37,2013-04-17 19:17:00,
2013-04-17 15:19:00,54.9,47.5,30.11,East,79,8.6,12.7,76,0.00,CLR,,0.01,WeatherDisplay:10.37,2013-04-17 19:19:00,
2013-04-17 15:20:00,54.9,47.8,30.11,ENE,59,6.6,11.5,77,0.00,CLR,,0.01,WeatherDisplay:10.37,2013-04-17 19:20:00,
2013-04-17 15:22:00,54.9,47.5,30.11,East,82,4.8,8.1,76,0.00,CLR,,0.01,WeatherDisplay:10.37,2013-04-17 19:22:00,
2013-04-17 15:23:00,54.9,47.8,30.11,ENE,70,4.2,8.1,77,0.00,CLR,,0.01,WeatherDisplay:10.37,2013-04-17 19:23:00,
2013-04-17 15:25:00,55.0,47.9,30.11,ENE,74,7.2,11.5,77,0.00,CLR,,0.01,WeatherDisplay:10.37,2013-04-17 19:25:00,
2013-04-17 15:26:00,55.0,47.6,30.11,East,94,8.0,11.5,76,0.00,CLR,,0.01,WeatherDisplay:10.37,2013-04-17 19:26:00,
2013-04-17 15:27:00,55.0,47.9,30.11,ESE,108,8.4,12.0,77,0.00,CLR,,0.01,WeatherDisplay:10.37,2013-04-17 19:27:00,
2013-04-17 15:28:00,55.0,47.9,30.11,East,86,9.7,12.7,77,0.00,CLR,,0.01,WeatherDisplay:10.37,2013-04-17 19:28:00,
2013-04-17 15:30:00,55.0,47.9,30.11,East,89,7.8,16.1,77,0.00,CLR,,0.01,WeatherDisplay:10.37,2013-04-17 19:30:00,
2013-04-17 15:31:00,55.0,47.9,30.11,East,86,9.0,11.5,77,0.00,CLR,,0.01,WeatherDisplay:10.37,2013-04-17 19:31:00,
2013-04-17 15:32:00,55.0,47.9,30.11,East,96,12.8,20.7,77,0.00,CLR,,0.01,WeatherDisplay:10.37,2013-04-17 19:32:00,
2013-04-17 15:33:00,55.0,47.9,30.11,East,82,10.6,19.6,77,0.00,CLR,,0.01,WeatherDisplay:10.37,2013-04-17 19:33:00,
2013-04-17 15:35:00,55.0,47.9,30.11,East,96,5.7,10.4,77,0.00,CLR,,0.01,WeatherDisplay:10.37,2013-04-17 19:35:00,
2013-04-17 15:36:00,55.0,47.9,30.11,East,89,9.0,12.7,77,0.00,CLR,,0.01,WeatherDisplay:10.37,2013-04-17 19:36:00,
2013-04-17 15:37:00,55.1,48.0,30.11,East,101,7.0,13.0,77,0.00,CLR,,0.01,WeatherDisplay:10.37,2013-04-17 19:37:00,
2013-04-17 15:39:00,55.1,48.0,30.11,NNE,13,6.2,12.7,77,0.00,CLR,,0.01,WeatherDisplay:10.37,2013-04-17 19:39:00,
2013-04-17 15:40:00,55.1,48.0,30.11,ENE,76,6.4,12.7,77,0.00,CLR,,0.01,WeatherDisplay:10.37,2013-04-17 19:40:00,
2013-04-17 15:41:00,55.1,48.0,30.11,East,88,4.6,8.1,77,0.00,CLR,,0.01,WeatherDisplay:10.37,2013-04-17 19:41:00,
2013-04-17 15:42:00,55.1,48.0,30.11,East,85,7.4,12.7,77,0.00,CLR,,0.01,WeatherDisplay:10.37,2013-04-17 19:42:00,
2013-04-17 15:43:00,55.2,48.5,30.11,ESE,102,9.2,12.7,78,0.00,CLR,,0.01,WeatherDisplay:10.37,2013-04-17 19:43:00,
2013-04-17 15:44:00,55.2,48.1,30.11,ESE,105,12.9,16.1,77,0.00,CLR,,0.01,WeatherDisplay:10.37,2013-04-17 19:44:00,
2013-04-17 15:45:00,55.2,48.1,30.11,SE,135,12.1,19.6,77,0.00,CLR,,0.01,WeatherDisplay:10.37,2013-04-17 19:45:00,
2013-04-17 15:47:00,55.1,48.0,30.11,East,89,10.8,15.0,77,0.00,CLR,,0.01,WeatherDisplay:10.37,2013-04-17 19:47:00,
2013-04-17 15:48:00,55.1,48.4,30.11,East,99,7.4,12.7,78,0.00,CLR,,0.01,WeatherDisplay:10.37,2013-04-17 19:48:00,
2013-04-17 15:50:00,55.1,48.4,30.10,East,95,11.1,19.0,78,0.00,CLR,,0.01,WeatherDisplay:10.37,2013-04-17 19:50:00,
2013-04-17 15:52:00,55.0,48.3,30.10,NE,46,6.0,19.6,78,0.00,CLR,,0.01,WeatherDisplay:10.37,2013-04-17 19:52:00,
2013-04-17 15:53:00,55.1,48.4,30.10,East,99,9.8,15.0,78,0.00,CLR,,0.01,WeatherDisplay:10.37,2013-04-17 19:53:00,
2013-04-17 15:55:00,55.0,48.3,30.10,ENE,77,10.1,15.0,78,0.00,CLR,,0.01,WeatherDisplay:10.37,2013-04-17 19:55:00,
2013-04-17 15:56:00,55.0,48.3,30.10,NE,36,9.3,12.7,78,0.00,CLR,,0.01,WeatherDisplay:10.37,2013-04-17 19:56:00,
2013-04-17 15:57:00,55.0,48.3,30.10,NE,53,6.7,9.2,78,0.00,CLR,,0.01,WeatherDisplay:10.37,2013-04-17 19:57:00,
2013-04-17 15:58:00,55.0,47.9,30.10,ESE,119,6.8,10.4,77,0.00,CLR,,0.01,WeatherDisplay:10.37,2013-04-17 19:58:00,
2013-04-17 16:00:00,55.0,48.3,30.10,East,81,9.1,17.0,78,0.00,CLR,,0.01,WeatherDisplay:10.37,2013-04-17 20:00:00,
2013-04-17 16:02:00,54.9,48.2,30.09,ESE,106,11.7,15.0,78,0.00,CLR,,0.01,WeatherDisplay:10.37,2013-04-17 20:02:00,
2013-04-17 16:03:00,54.9,48.2,30.09,NE,55,9.6,13.8,78,0.00,CLR,,0.01,WeatherDisplay:10.37,2013-04-17 20:03:00,
2013-04-17 16:04:00,54.9,48.5,30.09,East,93,8.8,18.4,79,0.00,CLR,,0.01,WeatherDisplay:10.37,2013-04-17 20:04:00,
2013-04-17 16:05:00,54.9,48.2,30.09,ESE,103,7.7,13.8,78,0.00,CLR,,0.01,WeatherDisplay:10.37,2013-04-17 20:05:00,
2013-04-17 16:08:00,55.0,48.6,30.09,East,92,10.4,13.8,79,0.00,CLR,,0.01,WeatherDisplay:10.37,2013-04-17 20:08:00,
2013-04-17 16:09:00,55.0,48.6,30.09,East,94,10.4,13.8,79,0.00,CLR,,0.01,WeatherDisplay:10.37,2013-04-17 20:09:00,
2013-04-17 16:10:00,55.1,48.7,30.09,ENE,77,8.6,12.7,79,0.00,CLR,,0.01,WeatherDisplay:10.37,2013-04-17 20:10:00,
2013-04-17 16:13:00,55.1,48.7,30.09,ESE,105,9.5,14.0,79,0.00,CLR,,0.01,WeatherDisplay:10.37,2013-04-17 20:13:00,
2013-04-17 16:15:00,55.2,49.1,30.09,East,99,8.1,12.7,80,0.00,CLR,,0.01,WeatherDisplay:10.37,2013-04-17 20:15:00,
2013-04-17 16:18:00,55.2,48.8,30.08,ENE,67,5.6,9.2,79,0.00,CLR,,0.01,WeatherDisplay:10.37,2013-04-17 20:18:00,
2013-04-17 16:19:00,55.3,49.2,30.08,East,87,4.6,8.0,80,0.00,CLR,,0.01,WeatherDisplay:10.37,2013-04-17 20:19:00,
2013-04-17 16:20:00,55.3,49.2,30.08,East,91,6.3,11.5,80,0.00,CLR,,0.01,WeatherDisplay:10.37,2013-04-17 20:20:00,
2013-04-17 16:23:00,55.4,49.3,30.08,North,9,7.9,10.4,80,0.00,CLR,,0.01,WeatherDisplay:10.37,2013-04-17 20:23:00,
2013-04-17 16:24:00,55.4,49.0,30.08,ENE,77,13.2,14.0,79,0.00,CLR,,0.01,WeatherDisplay:10.37,2013-04-17 20:24:00,
2013-04-17 16:25:00,55.4,49.0,30.08,East,96,13.7,17.3,79,0.00,CLR,,0.01,WeatherDisplay:10.37,2013-04-17 20:25:00,
2013-04-17 16:26:00,55.3,48.9,30.08,ENE,64,11.5,23.0,79,0.00,CLR,,0.01,WeatherDisplay:10.37,2013-04-17 20:26:00,
2013-04-17 16:28:00,55.3,48.9,30.08,ESE,121,12.6,17.3,79,0.00,CLR,,0.01,WeatherDisplay:10.37,2013-04-17 20:28:00,
2013-04-17 16:29:00,55.3,48.9,30.08,NE,49,9.1,17.3,79,0.00,CLR,,0.01,WeatherDisplay:10.37,2013-04-17 20:29:00,
2013-04-17 16:31:00,55.2,48.8,30.08,ENE,68,6.4,11.5,79,0.00,CLR,,0.01,WeatherDisplay:10.37,2013-04-17 20:31:00,
2013-04-17 16:33:00,55.2,48.8,30.07,ENE,78,7.6,13.8,79,0.00,CLR,,0.01,WeatherDisplay:10.37,2013-04-17 20:33:00,
2013-04-17 16:34:00,55.2,48.8,30.07,ESE,111,7.9,11.5,79,0.00,CLR,,0.01,WeatherDisplay:10.37,2013-04-17 20:34:00,
2013-04-17 16:36:00,55.1,49.0,30.06,ENE,78,9.3,15.0,80,0.00,CLR,,0.01,WeatherDisplay:10.37,2013-04-17 20:36:00,
2013-04-17 16:38:00,55.2,49.1,30.06,East,88,9.4,13.8,80,0.00,CLR,,0.01,WeatherDisplay:10.37,2013-04-17 20:38:00,
2013-04-17 16:39:00,55.2,49.1,30.06,ENE,74,10.0,12.7,80,0.00,CLR,,0.01,WeatherDisplay:10.37,2013-04-17 20:39:00,
2013-04-17 16:42:00,55.2,49.1,30.06,East,98,9.0,13.8,80,0.00,CLR,,0.01,WeatherDisplay:10.37,2013-04-17 20:42:00,
2013-04-17 16:43:00,55.2,49.1,30.06,ENE,71,10.1,16.1,80,0.00,CLR,,0.01,WeatherDisplay:10.37,2013-04-17 20:43:00,
2013-04-17 16:44:00,55.2,49.1,30.06,ENE,65,8.4,16.1,80,0.00,CLR,,0.01,WeatherDisplay:10.37,2013-04-17 20:44:00,
2013-04-17 16:47:00,55.3,49.2,30.06,ESE,119,7.8,16.1,80,0.00,CLR,,0.01,WeatherDisplay:10.37,2013-04-17 20:47:00,
2013-04-17 16:48:00,55.3,49.2,30.06,ENE,66,5.7,16.1,80,0.00,CLR,,0.01,WeatherDisplay:10.37,2013-04-17 20:48:00,
2013-04-17 16:49:00,55.3,49.2,30.06,ENE,71,6.5,11.5,80,0.00,CLR,,0.01,WeatherDisplay:10.37,2013-04-17 20:49:00,
2013-04-17 16:50:00,55.4,49.3,30.06,ESE,117,8.0,13.8,80,0.00,CLR,,0.01,WeatherDisplay:10.37,2013-04-17 20:50:00,
2013-04-17 16:52:00,55.4,49.3,30.05,ENE,68,7.8,16.1,80,0.00,CLR,,0.01,WeatherDisplay:10.37,2013-04-17 20:52:00,
2013-04-17 16:53:00,55.4,49.3,30.05,ESE,102,12.6,17.3,80,0.00,CLR,,0.01,WeatherDisplay:10.37,2013-04-17 20:53:00,
2013-04-17 16:54:00,55.4,49.3,30.05,East,83,12.9,16.1,80,0.00,CLR,,0.01,WeatherDisplay:10.37,2013-04-17 20:54:00,
2013-04-17 16:55:00,55.4,49.7,30.05,East,90,10.0,13.8,81,0.00,CLR,,0.01,WeatherDisplay:10.37,2013-04-17 20:55:00,
2013-04-17 16:57:00,55.4,49.7,30.05,East,86,9.4,15.0,81,0.00,CLR,,0.01,WeatherDisplay:10.37,2013-04-17 20:57:00,
2013-04-17 16:59:00,55.5,49.4,30.05,East,82,10.7,15.0,80,0.00,CLR,,0.01,WeatherDisplay:10.37,2013-04-17 20:59:00,
2013-04-17 17:00:00,55.5,49.8,30.04,ENE,65,5.0,9.2,81,0.00,CLR,,0.01,WeatherDisplay:10.37,2013-04-17 21:00:00,
2013-04-17 17:02:00,55.5,49.8,30.05,East,84,9.7,15.0,81,0.00,CLR,,0.01,WeatherDisplay:10.37,2013-04-17 21:02:00,
2013-04-17 17:04:00,55.6,49.5,30.05,East,101,7.8,15.0,80,0.00,CLR,,0.01,WeatherDisplay:10.37,2013-04-17 21:04:00,
2013-04-17 17:05:00,55.6,49.9,30.05,ENE,68,6.5,10.4,81,0.00,CLR,,0.01,WeatherDisplay:10.37,2013-04-17 21:05:00,
2013-04-17 17:07:00,55.6,49.9,30.05,NE,34,5.1,15.0,81,0.00,CLR,,0.01,WeatherDisplay:10.37,2013-04-17 21:07:00,
2013-04-17 17:09:00,55.6,49.9,30.05,ESE,106,11.3,17.3,81,0.00,CLR,,0.01,WeatherDisplay:10.37,2013-04-17 21:09:00,
2013-04-17 17:10:00,55.5,49.8,30.05,East,82,8.6,12.7,81,0.00,CLR,,0.01,WeatherDisplay:10.37,2013-04-17 21:10:00,
2013-04-17 17:13:00,55.5,49.8,30.05,East,98,10.4,15.0,81,0.00,CLR,,0.01,WeatherDisplay:10.37,2013-04-17 21:13:00,
2013-04-17 17:14:00,55.4,49.7,30.05,East,80,6.5,10.4,81,0.00,CLR,,0.01,WeatherDisplay:10.37,2013-04-17 21:14:00,
2013-04-17 17:15:00,55.4,49.7,30.05,ESE,105,6.9,9.2,81,0.00,CLR,,0.01,WeatherDisplay:10.37,2013-04-17 21:15:00,
2013-04-17 17:18:00,55.3,49.9,30.04,East,91,11.9,16.1,82,0.00,CLR,,0.01,WeatherDisplay:10.37,2013-04-17 21:18:00,
2013-04-17 17:19:00,55.3,49.9,30.04,East,92,10.1,13.8,82,0.00,CLR,,0.01,WeatherDisplay:10.37,2013-04-17 21:19:00,
2013-04-17 17:20:00,55.3,49.9,30.04,ESE,116,10.6,17.3,82,0.00,CLR,,0.01,WeatherDisplay:10.37,2013-04-17 21:20:00,
2013-04-17 17:23:00,55.3,49.9,30.04,SE,126,7.3,15.0,82,0.00,CLR,,0.01,WeatherDisplay:10.37,2013-04-17 21:23:00,
2013-04-17 17:24:00,55.2,49.8,30.04,NE,43,6.9,11.5,82,0.00,CLR,,0.01,WeatherDisplay:10.37,2013-04-17 21:24:00,
2013-04-17 17:25:00,55.2,49.8,30.04,East,86,4.6,10.4,82,0.00,CLR,,0.01,WeatherDisplay:10.37,2013-04-17 21:25:00,
2013-04-17 17:26:00,55.2,49.8,30.04,NE,47,4.7,8.1,82,0.00,CLR,,0.01,WeatherDisplay:10.37,2013-04-17 21:26:00,
2013-04-17 17:28:00,55.3,49.9,30.04,ESE,109,5.4,9.0,82,0.00,CLR,,0.01,WeatherDisplay:10.37,2013-04-17 21:28:00,
2013-04-17 17:29:00,55.3,49.9,30.05,ENE,67,6.8,10.4,82,0.00,CLR,,0.01,WeatherDisplay:10.37,2013-04-17 21:29:00,
2013-04-17 17:30:00,55.3,49.9,30.05,East,98,7.0,9.2,82,0.00,CLR,,0.01,WeatherDisplay:10.37,2013-04-17 21:30:00,
2013-04-17 17:31:00,55.3,49.9,30.05,East,101,5.3,11.5,82,0.00,CLR,,0.01,WeatherDisplay:10.37,2013-04-17 21:31:00,
2013-04-17 17:33:00,55.3,49.9,30.05,East,80,4.3,9.0,82,0.00,CLR,,0.01,WeatherDisplay:10.37,2013-04-17 21:33:00,
2013-04-17 17:35:00,55.4,50.0,30.04,East,85,3.5,8.1,82,0.00,CLR,,0.01,WeatherDisplay:10.37,2013-04-17 21:35:00,
2013-04-17 17:37:00,55.4,50.0,30.04,NE,51,5.9,11.0,82,0.00,CLR,,0.01,WeatherDisplay:10.37,2013-04-17 21:37:00,
2013-04-17 17:38:00,55.4,50.0,30.05,East,87,7.3,11.5,82,0.00,CLR,,0.01,WeatherDisplay:10.37,2013-04-17 21:38:00,
2013-04-17 17:40:00,55.4,50.0,30.05,ENE,67,4.7,11.5,82,0.00,CLR,,0.01,WeatherDisplay:10.37,2013-04-17 21:40:00,
2013-04-17 17:42:00,55.4,49.7,30.05,ENE,57,3.0,8.1,81,0.00,CLR,,0.01,WeatherDisplay:10.37,2013-04-17 21:42:00,
2013-04-17 17:44:00,55.3,49.9,30.05,East,82,3.7,8.0,82,0.00,CLR,,0.01,WeatherDisplay:10.37,2013-04-17 21:44:00,
2013-04-17 17:45:00,55.3,49.9,30.04,East,88,6.3,8.1,82,0.00,CLR,,0.01,WeatherDisplay:10.37,2013-04-17 21:45:00,
2013-04-17 17:48:00,55.3,49.6,30.04,ENE,67,9.0,15.0,81,0.00,CLR,,0.01,WeatherDisplay:10.37,2013-04-17 21:48:00,
2013-04-17 17:49:00,55.2,49.8,30.04,East,80,11.9,15.0,82,0.00,CLR,,0.01,WeatherDisplay:10.37,2013-04-17 21:49:00,
2013-04-17 17:50:00,55.2,49.5,30.05,East,98,8.8,16.1,81,0.00,CLR,,0.01,WeatherDisplay:10.37,2013-04-17 21:50:00,
2013-04-17 17:51:00,55.2,49.8,30.05,ENE,63,9.1,16.1,82,0.00,CLR,,0.01,WeatherDisplay:10.37,2013-04-17 21:51:00,
2013-04-17 17:53:00,55.2,49.8,30.04,East,80,7.9,17.3,82,0.00,CLR,,0.01,WeatherDisplay:10.37,2013-04-17 21:53:00,
2013-04-17 17:54:00,55.2,49.8,30.04,East,92,7.1,13.8,82,0.00,CLR,,0.01,WeatherDisplay:10.37,2013-04-17 21:54:00,
2013-04-17 17:55:00,55.2,49.8,30.04,ENE,67,5.9,11.0,82,0.00,CLR,,0.01,WeatherDisplay:10.37,2013-04-17 21:55:00,
2013-04-17 17:56:00,55.2,49.8,30.04,East,93,6.8,11.5,82,0.00,CLR,,0.01,WeatherDisplay:10.37,2013-04-17 21:56:00,
2013-04-17 17:58:00,55.2,49.8,30.03,ENE,74,4.2,8.1,82,0.00,CLR,,0.01,WeatherDisplay:10.37,2013-04-17 21:58:00,
2013-04-17 18:00:00,55.2,49.8,30.03,ENE,61,9.7,15.0,82,0.00,CLR,,0.01,WeatherDisplay:10.37,2013-04-17 22:00:00,
2013-04-17 18:01:00,55.2,49.8,30.03,East,83,8.9,12.7,82,0.00,CLR,,0.01,WeatherDisplay:10.37,2013-04-17 22:01:00,
2013-04-17 18:03:00,55.3,49.9,30.02,ENE,67,8.8,11.5,82,0.00,CLR,,0.01,WeatherDisplay:10.37,2013-04-17 22:03:00,
2013-04-17 18:05:00,55.3,49.9,30.02,ENE,67,6.3,10.4,82,0.00,CLR,,0.01,WeatherDisplay:10.37,2013-04-17 22:05:00,
2013-04-17 18:06:00,55.3,49.9,30.02,NE,42,7.4,11.5,82,0.00,CLR,,0.01,WeatherDisplay:10.37,2013-04-17 22:06:00,
2013-04-17 18:09:00,55.4,50.0,30.02,East,95,5.0,12.7,82,0.00,CLR,,0.01,WeatherDisplay:10.37,2013-04-17 22:09:00,
2013-04-17 18:10:00,55.4,50.0,30.03,ENE,78,5.1,9.2,82,0.00,CLR,,0.01,WeatherDisplay:10.37,2013-04-17 22:10:00,
2013-04-17 18:11:00,55.4,50.0,30.02,ESE,104,5.2,11.5,82,0.00,CLR,,0.01,WeatherDisplay:10.37,2013-04-17 22:11:00,
2013-04-17 18:12:00,55.5,50.1,30.02,ESE,103,5.3,9.2,82,0.00,CLR,,0.01,WeatherDisplay:10.37,2013-04-17 22:12:00,
2013-04-17 18:14:00,55.5,50.1,30.02,ESE,112,7.9,13.8,82,0.00,CLR,,0.01,WeatherDisplay:10.37,2013-04-17 22:14:00,
2013-04-17 18:15:00,55.5,50.1,30.02,NE,54,8.3,12.7,82,0.00,CLR,,0.01,WeatherDisplay:10.37,2013-04-17 22:15:00,
2013-04-17 18:17:00,55.5,50.1,30.02,East,98,7.5,11.5,82,0.00,CLR,,0.01,WeatherDisplay:10.37,2013-04-17 22:17:00,
2013-04-17 18:19:00,55.5,50.1,30.02,NE,53,6.3,9.2,82,0.00,CLR,,0.01,WeatherDisplay:10.37,2013-04-17 22:19:00,
2013-04-17 18:20:00,55.5,50.1,30.02,East,97,9.8,10.0,82,0.00,CLR,,0.01,WeatherDisplay:10.37,2013-04-17 22:20:00,
2013-04-17 18:22:00,55.5,50.1,30.02,ENE,77,7.6,11.5,82,0.00,CLR,,0.01,WeatherDisplay:10.37,2013-04-17 22:22:00,
2013-04-17 18:24:00,55.5,50.1,30.02,East,88,7.8,11.5,82,0.00,CLR,,0.01,WeatherDisplay:10.37,2013-04-17 22:24:00,
2013-04-17 18:26:00,55.5,50.1,30.02,East,81,6.5,10.4,82,0.00,CLR,,0.01,WeatherDisplay:10.37,2013-04-17 22:26:00,
2013-04-17 18:27:00,55.5,50.1,30.02,East,86,5.7,10.4,82,0.00,CLR,,0.01,WeatherDisplay:10.37,2013-04-17 22:27:00,
2013-04-17 18:29:00,55.5,50.1,30.02,East,83,8.7,11.0,82,0.00,CLR,,0.01,WeatherDisplay:10.37,2013-04-17 22:29:00,
2013-04-17 18:32:00,55.6,50.5,30.02,East,80,6.0,11.5,83,0.00,CLR,,0.01,WeatherDisplay:10.37,2013-04-17 22:32:00,
2013-04-17 18:35:00,55.6,50.5,30.02,NNE,24,6.3,11.5,83,0.00,CLR,,0.01,WeatherDisplay:10.37,2013-04-17 22:35:00,
2013-04-17 18:37:00,55.6,50.2,30.02,East,82,5.9,11.5,82,0.00,CLR,,0.01,WeatherDisplay:10.37,2013-04-17 22:37:00,
2013-04-17 18:40:00,55.6,50.5,30.02,East,81,5.8,13.8,83,0.00,CLR,,0.01,WeatherDisplay:10.37,2013-04-17 22:40:00,
2013-04-17 18:42:00,55.6,50.5,30.02,ESE,120,5.8,10.4,83,0.00,CLR,,0.01,WeatherDisplay:10.37,2013-04-17 22:42:00,
2013-04-17 18:43:00,55.6,50.5,30.02,North,5,5.2,9.2,83,0.00,CLR,,0.01,WeatherDisplay:10.37,2013-04-17 22:43:00,
2013-04-17 18:45:00,55.7,50.6,30.02,ENE,67,8.6,12.7,83,0.00,CLR,,0.01,WeatherDisplay:10.37,2013-04-17 22:45:00,
2013-04-17 18:48:00,55.7,50.6,30.02,East,99,3.5,7.0,83,0.00,CLR,,0.01,WeatherDisplay:10.37,2013-04-17 22:48:00,
2013-04-17 18:50:00,55.7,50.6,30.01,ENE,69,6.8,10.4,83,0.00,CLR,,0.01,WeatherDisplay:10.37,2013-04-17 22:50:00,
2013-04-17 18:53:00,55.7,50.6,30.02,East,82,3.4,10.4,83,0.00,CLR,,0.01,WeatherDisplay:10.37,2013-04-17 22:53:00,
2013-04-17 18:54:00,55.7,50.6,30.02,ENE,68,0.9,2.3,83,0.00,CLR,,0.01,WeatherDisplay:10.37,2013-04-17 22:54:00,
2013-04-17 18:55:00,55.7,50.6,30.03,SE,133,1.9,2.3,83,0.00,CLR,,0.01,WeatherDisplay:10.37,2013-04-17 22:55:00,
2013-04-17 18:58:00,55.7,50.6,30.03,ESE,119,0.4,1.1,83,0.00,CLR,,0.01,WeatherDisplay:10.37,2013-04-17 22:58:00,
2013-04-17 18:59:00,55.7,50.6,30.03,NE,43,2.0,5.0,83,0.00,CLR,,0.01,WeatherDisplay:10.37,2013-04-17 22:59:00,
2013-04-17 19:00:00,55.7,50.6,30.02,ENE,57,1.9,4.6,83,0.00,CLR,,0.01,WeatherDisplay:10.37,2013-04-17 23:00:00,
2013-04-17 19:03:00,55.7,50.6,30.02,ENE,73,5.7,8.0,83,0.00,CLR,,0.01,WeatherDisplay:10.37,2013-04-17 23:03:00,
2013-04-17 19:04:00,55.7,50.6,30.02,ENE,77,5.4,9.2,83,0.00,CLR,,0.01,WeatherDisplay:10.37,2013-04-17 23:04:00,
2013-04-17 19:05:00,55.7,50.6,30.02,ENE,66,6.0,9.0,83,0.00,CLR,,0.01,WeatherDisplay:10.37,2013-04-17 23:05:00,
2013-04-17 19:08:00,55.7,50.9,30.01,East,92,6.2,9.2,84,0.00,CLR,,0.01,WeatherDisplay:10.37,2013-04-17 23:08:00,
2013-04-17 19:10:00,55.7,50.9,30.01,East,87,4.7,8.1,84,0.00,CLR,,0.01,WeatherDisplay:10.37,2013-04-17 23:10:00,
2013-04-17 19:11:00,55.7,50.9,30.01,East,84,6.3,9.2,84,0.00,CLR,,0.01,WeatherDisplay:10.37,2013-04-17 23:11:00,
2013-04-17 19:14:00,55.7,50.9,30.01,ESE,109,7.2,9.2,84,0.00,CLR,,0.01,WeatherDisplay:10.37,2013-04-17 23:14:00,
2013-04-17 19:15:00,55.7,50.9,30.00,ENE,69,6.0,10.4,84,0.00,CLR,,0.01,WeatherDisplay:10.37,2013-04-17 23:15:00,
2013-04-17 19:16:00,55.7,50.9,30.00,ENE,75,6.6,10.0,84,0.00,CLR,,0.01,WeatherDisplay:10.37,2013-04-17 23:16:00,
2013-04-17 19:19:00,55.7,50.9,30.00,ENE,77,5.8,9.2,84,0.00,CLR,,0.01,WeatherDisplay:10.37,2013-04-17 23:19:00,
2013-04-17 19:20:00,55.7,50.9,30.00,ENE,61,5.7,9.2,84,0.00,CLR,,0.01,WeatherDisplay:10.37,2013-04-17 23:20:00,
2013-04-17 19:22:00,55.7,50.9,30.00,ENE,74,4.4,9.2,84,0.00,CLR,,0.01,WeatherDisplay:10.37,2013-04-17 23:22:00,
2013-04-17 19:24:00,55.7,50.9,29.99,ESE,107,5.9,12.7,84,0.00,CLR,,0.01,WeatherDisplay:10.37,2013-04-17 23:24:00,
2013-04-17 19:25:00,55.7,50.9,29.99,East,79,7.0,13.0,84,0.00,CLR,,0.01,WeatherDisplay:10.37,2013-04-17 23:25:00,
2013-04-17 19:26:00,55.7,50.9,29.99,East,90,6.6,10.4,84,0.00,CLR,,0.01,WeatherDisplay:10.37,2013-04-17 23:26:00,
2013-04-17 19:27:00,55.7,50.9,29.99,ENE,63,8.4,11.5,84,0.00,CLR,,0.01,WeatherDisplay:10.37,2013-04-17 23:27:00,
2013-04-17 19:29:00,55.7,50.9,29.99,East,94,5.4,13.8,84,0.00,CLR,,0.01,WeatherDisplay:10.37,2013-04-17 23:29:00,
2013-04-17 19:30:00,55.7,50.9,29.99,East,90,6.0,13.0,84,0.00,CLR,,0.01,WeatherDisplay:10.37,2013-04-17 23:30:00,
2013-04-17 19:31:00,55.8,51.0,29.98,ENE,78,7.1,11.5,84,0.00,CLR,,0.01,WeatherDisplay:10.37,2013-04-17 23:31:00,
2013-04-17 19:32:00,55.8,51.0,29.98,NE,46,7.6,11.5,84,0.00,CLR,,0.01,WeatherDisplay:10.37,2013-04-17 23:32:00,
2013-04-17 19:33:00,55.8,51.0,29.98,East,87,7.4,11.5,84,0.00,CLR,,0.01,WeatherDisplay:10.37,2013-04-17 23:33:00,
2013-04-17 19:34:00,55.8,51.0,29.98,East,99,7.2,10.4,84,0.00,CLR,,0.01,WeatherDisplay:10.37,2013-04-17 23:34:00,
2013-04-17 19:35:00,55.8,51.0,29.98,ESE,105,7.5,10.4,84,0.00,CLR,,0.01,WeatherDisplay:10.37,2013-04-17 23:35:00,
2013-04-17 19:36:00,55.9,51.1,29.98,ESE,107,8.4,13.8,84,0.00,CLR,,0.01,WeatherDisplay:10.37,2013-04-17 23:36:00,
2013-04-17 19:38:00,55.9,51.1,29.98,East,83,11.1,17.3,84,0.00,CLR,,0.01,WeatherDisplay:10.37,2013-04-17 23:38:00,
2013-04-17 19:40:00,55.9,51.1,29.98,East,81,7.0,17.0,84,0.00,CLR,,0.01,WeatherDisplay:10.37,2013-04-17 23:40:00,
2013-04-17 19:42:00,55.9,51.1,29.98,East,94,11.9,15.0,84,0.00,CLR,,0.01,WeatherDisplay:10.37,2013-04-17 23:42:00,
2013-04-17 19:43:00,55.9,51.1,29.98,East,80,9.1,12.7,84,0.00,CLR,,0.01,WeatherDisplay:10.37,2013-04-17 23:43:00,
2013-04-17 19:45:00,55.9,51.1,29.99,NE,55,6.5,12.7,84,0.00,CLR,,0.01,WeatherDisplay:10.37,2013-04-17 23:45:00,
2013-04-17 19:47:00,56.0,51.2,30.01,WNW,300,4.8,5.8,84,0.00,CLR,,0.01,WeatherDisplay:10.37,2013-04-17 23:47:00,
2013-04-17 19:48:00,56.0,51.6,30.03,WNW,283,7.7,14.0,85,0.00,CLR,,0.01,WeatherDisplay:10.37,2013-04-17 23:48:00,
2013-04-17 19:50:00,55.9,51.1,30.03,SW,234,11.9,17.3,84,0.00,CLR,,0.01,WeatherDisplay:10.37,2013-04-17 23:50:00,
2013-04-17 19:52:00,55.4,49.3,30.03,North,11,15.7,23.0,80,0.00,CLR,,0.01,WeatherDisplay:10.37,2013-04-17 23:52:00,
2013-04-17 19:53:00,55.0,48.9,30.01,North,349,14.8,19.6,80,0.00,CLR,,0.01,WeatherDisplay:10.37,2013-04-17 23:53:00,
2013-04-17 19:54:00,55.0,48.9,30.01,West,265,14.4,19.6,80,0.00,CLR,,0.01,WeatherDisplay:10.37,2013-04-17 23:54:00,
2013-04-17 19:55:00,54.7,48.6,30.01,North,10,10.5,17.3,80,0.00,CLR,,0.01,WeatherDisplay:10.37,2013-04-17 23:55:00,
2013-04-17 19:57:00,54.4,49.0,30.00,NNE,28,11.5,16.1,82,0.00,CLR,,0.01,WeatherDisplay:10.37,2013-04-17 23:57:00,
2013-04-17 19:59:00,54.3,49.2,29.99,NNE,15,10.2,13.8,83,0.00,CLR,,0.01,WeatherDisplay:10.37,2013-04-17 23:59:00,
2013-04-17 20:00:00,54.2,49.1,29.99,NE,50,10.1,17.3,83,0.00,CLR,,0.01,WeatherDisplay:10.37,2013-04-18 00:00:00,
2013-04-17 20:02:00,54.4,49.7,29.98,East,85,10.0,13.0,84,0.00,CLR,,0.01,WeatherDisplay:10.37,2013-04-18 00:02:00,
2013-04-17 20:04:00,54.5,49.4,29.98,East,84,8.2,11.5,83,0.00,CLR,,0.01,WeatherDisplay:10.37,2013-04-18 00:04:00,
2013-04-17 20:05:00,54.5,49.4,29.97,ENE,68,9.7,13.0,83,0.00,CLR,,0.01,WeatherDisplay:10.37,2013-04-18 00:05:00,
2013-04-17 20:07:00,54.6,49.5,29.97,NE,40,5.2,12.7,83,0.00,CLR,,0.01,WeatherDisplay:10.37,2013-04-18 00:07:00,
2013-04-17 20:09:00,54.6,49.5,29.99,West,263,1.4,3.0,83,0.00,CLR,,0.01,WeatherDisplay:10.37,2013-04-18 00:09:00,
2013-04-17 20:10:00,54.6,49.5,29.99,West,277,2.1,4.0,83,0.00,CLR,,0.01,WeatherDisplay:10.37,2013-04-18 00:10:00,
2013-04-17 20:12:00,54.7,50.0,30.01,North,355,6.7,9.2,84,0.00,CLR,,0.01,WeatherDisplay:10.37,2013-04-18 00:12:00,
2013-04-17 20:13:00,54.8,50.1,30.02,NW,311,6.7,12.0,84,0.00,CLR,,0.01,WeatherDisplay:10.37,2013-04-18 00:13:00,
2013-04-17 20:14:00,54.8,50.1,30.02,WNW,289,10.5,12.7,84,0.00,CLR,,0.01,WeatherDisplay:10.37,2013-04-18 00:14:00,
2013-04-17 20:15:00,54.8,49.7,30.02,WNW,296,9.9,13.8,83,0.00,CLR,,0.01,WeatherDisplay:10.37,2013-04-18 00:15:00,
2013-04-17 20:17:00,54.5,48.8,30.02,North,360,14.2,19.6,81,0.00,CLR,,0.01,WeatherDisplay:10.37,2013-04-18 00:17:00,
2013-04-17 20:18:00,54.3,48.6,30.02,North,9,14.3,19.6,81,0.00,CLR,,0.01,WeatherDisplay:10.37,2013-04-18 00:18:00,
2013-04-17 20:20:00,53.8,48.4,30.00,NW,319,16.5,23.0,82,0.00,CLR,,0.01,WeatherDisplay:10.37,2013-04-18 00:20:00,
2013-04-17 20:21:00,53.7,48.3,30.00,NNW,340,14.6,23.0,82,0.00,CLR,,0.01,WeatherDisplay:10.37,2013-04-18 00:21:00,
2013-04-17 20:22:00,53.4,48.0,30.00,North,5,10.7,15.0,82,0.00,CLR,,0.01,WeatherDisplay:10.37,2013-04-18 00:22:00,
2013-04-17 20:23:00,53.3,47.9,29.99,NW,316,9.6,13.8,82,0.00,CLR,,0.01,WeatherDisplay:10.37,2013-04-18 00:23:00,
2013-04-17 20:25:00,53.1,48.4,30.01,NNW,346,9.0,13.8,84,0.02,RA,,0.03,WeatherDisplay:10.37,2013-04-18 00:25:00,
2013-04-17 20:27:00,52.8,48.1,30.01,NW,312,16.2,21.9,84,0.04,RA,,0.05,WeatherDisplay:10.37,2013-04-18 00:27:00,
2013-04-17 20:29:00,52.5,48.1,30.03,NNW,347,9.8,15.0,85,0.06,RA,,0.07,WeatherDisplay:10.37,2013-04-18 00:29:00,
2013-04-17 20:30:00,52.2,47.8,30.03,NNW,327,12.9,16.0,85,0.07,RA,,0.08,WeatherDisplay:10.37,2013-04-18 00:30:00,
2013-04-17 20:31:00,52.1,47.7,30.03,NNW,331,12.8,17.3,85,0.07,RA,,0.08,WeatherDisplay:10.37,2013-04-18 00:31:00,
2013-04-17 20:32:00,51.9,47.8,30.05,WNW,294,10.2,17.3,86,0.08,RA,,0.09,WeatherDisplay:10.37,2013-04-18 00:32:00,
2013-04-17 20:34:00,51.7,48.0,30.05,NW,317,10.8,13.8,87,0.09,RA,,0.10,WeatherDisplay:10.37,2013-04-18 00:34:00,
2013-04-17 20:35:00,51.5,48.1,30.05,NW,326,12.2,16.0,88,0.10,RA,,0.11,WeatherDisplay:10.37,2013-04-18 00:35:00,
2013-04-17 20:37:00,51.3,48.2,30.04,NNE,17,12.4,18.4,89,0.11,RA,,0.12,WeatherDisplay:10.37,2013-04-18 00:37:00,
2013-04-17 20:38:00,51.1,48.0,30.03,North,360,10.1,15.0,89,0.11,RA,,0.12,WeatherDisplay:10.37,2013-04-18 00:38:00,
2013-04-17 20:39:00,51.0,48.2,30.03,NNE,31,10.2,17.3,90,0.11,RA,,0.12,WeatherDisplay:10.37,2013-04-18 00:39:00,
2013-04-17 20:40:00,51.0,48.2,30.03,NNW,337,10.0,18.0,90,0.01,RA,,0.13,WeatherDisplay:10.37,2013-04-18 00:40:00,
2013-04-17 20:42:00,50.8,48.0,30.05,North,10,8.2,10.4,90,0.12,RA,,0.13,WeatherDisplay:10.37,2013-04-18 00:42:00,
2013-04-17 20:43:00,50.7,48.2,30.05,North,5,7.3,11.5,91,0.13,RA,,0.14,WeatherDisplay:10.37,2013-04-18 00:43:00,
2013-04-17 20:44:00,50.6,48.1,30.05,North,350,9.8,12.7,91,0.14,RA,,0.15,WeatherDisplay:10.37,2013-04-18 00:44:00,
2013-04-17 20:45:00,50.7,48.1,30.05,NNW,343,9.0,17.0,91,0.01,RA,,0.16,WeatherDisplay:10.37,2013-04-18 00:45:00,
2013-04-17 20:47:00,50.5,48.0,30.04,East,91,7.4,12.7,91,0.20,RA,,0.21,WeatherDisplay:10.37,2013-04-18 00:47:00,
2013-04-17 20:48:00,50.4,48.2,30.05,NW,321,11.3,15.0,92,0.21,RA,,0.23,WeatherDisplay:10.37,2013-04-18 00:48:00,
2013-04-17 20:49:00,50.3,48.1,30.05,North,11,10.7,16.1,92,0.22,RA,,0.24,WeatherDisplay:10.37,2013-04-18 00:49:00,
2013-04-17 20:50:00,50.3,48.1,30.05,NNE,20,10.0,16.1,92,0.22,RA,,0.24,WeatherDisplay:10.37,2013-04-18 00:50:00,
2013-04-17 20:52:00,50.2,48.0,30.05,NNE,15,8.9,11.5,92,0.25,RA,,0.26,WeatherDisplay:10.37,2013-04-18 00:52:00,
2013-04-17 20:53:00,50.2,48.0,30.05,NNE,21,9.1,11.5,92,0.25,RA,,0.27,WeatherDisplay:10.37,2013-04-18 00:53:00,
2013-04-17 20:54:00,50.2,48.0,30.06,NNE,30,8.8,12.7,92,0.26,RA,,0.27,WeatherDisplay:10.37,2013-04-18 00:54:00,
2013-04-17 20:55:00,50.2,48.0,30.05,NNE,12,8.0,13.0,92,0.01,RA,,0.28,WeatherDisplay:10.37,2013-04-18 00:55:00,
2013-04-17 20:57:00,50.2,48.0,30.07,ENE,57,6.1,9.2,92,0.31,RA,,0.33,WeatherDisplay:10.37,2013-04-18 00:57:00,
2013-04-17 20:59:00,50.2,48.0,30.07,NE,40,10.0,13.8,92,0.34,RA,,0.37,WeatherDisplay:10.37,2013-04-18 00:59:00,
2013-04-17 21:00:00,50.1,47.9,30.07,North,9,10.9,15.0,92,0.36,RA,,0.37,WeatherDisplay:10.37,2013-04-18 01:00:00,
2013-04-17 21:02:00,50.0,48.1,30.07,NE,43,8.6,14.0,93,0.40,RA,,0.43,WeatherDisplay:10.37,2013-04-18 01:02:00,
2013-04-17 21:04:00,50.0,48.1,30.06,NNE,30,8.1,11.5,93,0.46,RA,,0.50,WeatherDisplay:10.37,2013-04-18 01:04:00,
2013-04-17 21:05:00,49.9,48.0,30.06,NNE,20,8.4,11.5,93,0.50,RA,,0.51,WeatherDisplay:10.37,2013-04-18 01:05:00,
2013-04-17 21:07:00,49.9,48.0,30.07,NNE,17,4.6,5.8,93,0.55,RA,,0.56,WeatherDisplay:10.37,2013-04-18 01:07:00,
2013-04-17 21:09:00,49.9,48.2,30.06,NNE,26,7.2,9.2,94,0.57,RA,,0.59,WeatherDisplay:10.37,2013-04-18 01:09:00,
2013-04-17 21:10:00,49.8,48.1,30.06,NNE,21,8.8,10.4,94,0.58,RA,,0.61,WeatherDisplay:10.37,2013-04-18 01:10:00,
2013-04-17 21:12:00,49.8,48.1,30.05,North,9,9.6,12.7,94,0.62,RA,,0.64,WeatherDisplay:10.37,2013-04-18 01:12:00,
2013-04-17 21:13:00,49.7,48.0,30.05,NNE,28,9.0,12.7,94,0.65,RA,,0.66,WeatherDisplay:10.37,2013-04-18 01:13:00,
2013-04-17 21:15:00,49.7,48.0,30.03,NNE,17,7.1,12.7,94,0.69,RA,,0.71,WeatherDisplay:10.37,2013-04-18 01:15:00,
2013-04-17 21:17:00,49.7,48.0,30.03,NNE,20,8.3,10.4,94,0.71,RA,,0.72,WeatherDisplay:10.37,2013-04-18 01:17:00,
2013-04-17 21:18:00,49.6,47.9,30.03,NNE,24,8.4,14.0,94,0.72,RA,,0.73,WeatherDisplay:10.37,2013-04-18 01:18:00,
2013-04-17 21:21:00,49.5,48.1,30.02,NNE,13,8.6,10.4,95,0.73,RA,,0.74,WeatherDisplay:10.37,2013-04-18 01:21:00,
2013-04-17 21:22:00,49.5,48.1,30.02,NNE,16,8.5,11.5,95,0.73,RA,,0.74,WeatherDisplay:10.37,2013-04-18 01:22:00,
2013-04-17 21:23:00,49.5,48.1,30.02,NNE,17,8.8,10.4,95,0.73,RA,,0.75,WeatherDisplay:10.37,2013-04-18 01:23:00,
2013-04-17 21:26:00,49.4,48.0,30.02,NNE,24,7.5,9.2,95,0.71,RA,,0.75,WeatherDisplay:10.37,2013-04-18 01:26:00,
2013-04-17 21:28:00,49.4,48.0,30.01,NNE,20,8.2,13.8,95,0.69,RA,,0.75,WeatherDisplay:10.37,2013-04-18 01:28:00,
2013-04-17 21:31:00,49.3,47.9,30.00,NE,39,7.8,11.5,95,0.68,RA,,0.76,WeatherDisplay:10.37,2013-04-18 01:31:00,
2013-04-17 21:32:00,49.3,47.9,30.00,NNE,26,8.0,13.8,95,0.67,RA,,0.76,WeatherDisplay:10.37,2013-04-18 01:32:00,
2013-04-17 21:33:00,49.3,47.9,30.00,NNE,19,7.4,10.4,95,0.67,RA,,0.76,WeatherDisplay:10.37,2013-04-18 01:33:00,
2013-04-17 21:36:00,49.4,48.0,30.01,North,11,6.5,8.1,95,0.65,RA,,0.76,WeatherDisplay:10.37,2013-04-18 01:36:00,
2013-04-17 21:37:00,49.4,48.0,30.01,North,5,6.6,8.1,95,0.64,RA,,0.76,WeatherDisplay:10.37,2013-04-18 01:37:00,
2013-04-17 21:38:00,49.4,48.0,30.01,North,5,7.1,8.1,95,0.64,RA,,0.76,WeatherDisplay:10.37,2013-04-18 01:38:00,
2013-04-17 21:39:00,49.4,48.0,30.01,North,355,6.8,8.1,95,0.64,RA,,0.76,WeatherDisplay:10.37,2013-04-18 01:39:00,
2013-04-17 21:42:00,49.4,48.0,30.02,NNE,30,5.4,9.2,95,0.63,CLR,,0.76,WeatherDisplay:10.37,2013-04-18 01:42:00,
2013-04-17 21:43:00,49.4,48.0,30.02,North,5,4.3,9.2,95,0.62,CLR,,0.76,WeatherDisplay:10.37,2013-04-18 01:43:00,
2013-04-17 21:44:00,49.4,48.0,30.02,North,9,3.6,4.6,95,0.61,CLR,,0.76,WeatherDisplay:10.37,2013-04-18 01:44:00,
2013-04-17 21:47:00,49.5,48.1,30.03,ENE,69,2.3,7.0,95,0.55,CLR,,0.76,WeatherDisplay:10.37,2013-04-18 01:47:00,
2013-04-17 21:48:00,49.5,48.1,30.03,ENE,76,4.8,6.9,95,0.54,CLR,,0.76,WeatherDisplay:10.37,2013-04-18 01:48:00,
2013-04-17 21:49:00,49.5,48.1,30.03,ENE,60,3.1,4.6,95,0.53,CLR,,0.76,WeatherDisplay:10.37,2013-04-18 01:49:00,
2013-04-17 21:52:00,49.6,48.2,30.04,ENE,71,1.6,4.6,95,0.50,CLR,,0.76,WeatherDisplay:10.37,2013-04-18 01:52:00,
2013-04-17 21:53:00,49.6,48.2,30.04,NNE,13,1.4,3.5,95,0.50,CLR,,0.76,WeatherDisplay:10.37,2013-04-18 01:53:00,
2013-04-17 21:54:00,49.6,48.2,30.04,East,85,0.4,3.5,95,0.50,RA,,0.77,WeatherDisplay:10.37,2013-04-18 01:54:00,
2013-04-17 21:57:00,49.7,48.6,30.03,NE,34,2.9,4.0,96,0.47,RA,,0.80,WeatherDisplay:10.37,2013-04-18 01:57:00,
2013-04-17 21:58:00,49.7,48.6,30.03,NNE,33,3.5,4.6,96,0.46,RA,,0.80,WeatherDisplay:10.37,2013-04-18 01:58:00,
2013-04-17 21:59:00,49.7,48.6,30.03,NNE,24,3.0,4.6,96,0.45,RA,,0.80,WeatherDisplay:10.37,2013-04-18 01:59:00,
2013-04-17 22:00:00,49.7,48.6,30.03,NNE,29,3.0,5.0,96,0.01,RA,,0.81,WeatherDisplay:10.37,2013-04-18 02:00:00,
2013-04-17 22:02:00,49.8,48.7,30.02,NNE,14,4.3,5.8,96,0.40,RA,,0.81,WeatherDisplay:10.37,2013-04-18 02:02:00,
2013-04-17 22:03:00,49.7,48.6,30.02,NNE,20,4.3,4.6,96,0.37,RA,,0.81,WeatherDisplay:10.37,2013-04-18 02:03:00,
2013-04-17 22:04:00,49.8,48.7,30.02,NNE,15,3.7,4.6,96,0.34,RA,,0.82,WeatherDisplay:10.37,2013-04-18 02:04:00,
2013-04-17 22:05:00,49.8,48.7,30.02,NNE,17,3.0,6.0,96,0.01,RA,,0.82,WeatherDisplay:10.37,2013-04-18 02:05:00,
2013-04-17 22:08:00,49.8,48.7,30.02,NNE,17,5.5,8.1,96,0.25,RA,,0.82,WeatherDisplay:10.37,2013-04-18 02:08:00,
2013-04-17 22:09:00,49.7,48.6,30.02,North,5,6.1,8.1,96,0.25,RA,,0.82,WeatherDisplay:10.37,2013-04-18 02:09:00,
2013-04-17 22:10:00,49.7,48.6,30.02,NNE,15,4.3,5.8,96,0.23,RA,,0.82,WeatherDisplay:10.37,2013-04-18 02:10:00,
2013-04-17 22:13:00,49.7,48.6,30.01,NE,48,6.0,9.2,96,0.17,RA,,0.83,WeatherDisplay:10.37,2013-04-18 02:13:00,
2013-04-17 22:14:00,49.7,48.6,30.01,NE,40,6.6,9.2,96,0.17,RA,,0.83,WeatherDisplay:10.37,2013-04-18 02:14:00,
2013-04-17 22:15:00,49.7,48.6,30.00,NNE,15,6.6,10.4,96,0.13,RA,,0.83,WeatherDisplay:10.37,2013-04-18 02:15:00,
2013-04-17 22:18:00,49.7,48.3,30.00,ENE,73,7.8,11.5,95,0.11,RA,,0.84,WeatherDisplay:10.37,2013-04-18 02:18:00,
2013-04-17 22:19:00,49.7,48.3,30.00,ENE,71,8.6,11.5,95,0.11,RA,,0.84,WeatherDisplay:10.37,2013-04-18 02:19:00,
2013-04-17 22:20:00,49.7,48.3,29.99,NNE,32,8.1,11.5,95,0.11,RA,,0.85,WeatherDisplay:10.37,2013-04-18 02:20:00,
2013-04-17 22:22:00,49.7,48.3,29.99,ENE,76,9.0,11.5,95,0.11,RA,,0.86,WeatherDisplay:10.37,2013-04-18 02:22:00,
2013-04-17 22:24:00,49.6,48.2,29.98,NE,54,11.7,15.0,95,0.11,RA,,0.86,WeatherDisplay:10.37,2013-04-18 02:24:00,
2013-04-17 22:26:00,49.6,48.2,29.96,NE,44,10.8,16.1,95,0.11,RA,,0.87,WeatherDisplay:10.37,2013-04-18 02:26:00,
2013-04-17 22:27:00,49.6,48.2,29.95,NNE,28,12.4,17.3,95,0.12,RA,,0.87,WeatherDisplay:10.37,2013-04-18 02:27:00,
2013-04-17 22:29:00,49.5,48.1,29.95,NE,53,11.1,15.0,95,0.12,RA,,0.87,WeatherDisplay:10.37,2013-04-18 02:29:00,
2013-04-17 22:30:00,49.5,48.1,29.95,NNE,31,7.5,13.8,95,0.11,RA,,0.87,WeatherDisplay:10.37,2013-04-18 02:30:00,
2013-04-17 22:31:00,49.4,48.0,29.97,NE,35,7.5,11.5,95,0.12,RA,,0.88,WeatherDisplay:10.37,2013-04-18 02:31:00,
2013-04-17 22:32:00,49.4,48.0,29.99,North,5,4.0,8.1,95,0.12,RA,,0.88,WeatherDisplay:10.37,2013-04-18 02:32:00,
2013-04-17 22:34:00,49.4,48.0,29.99,NNE,24,5.2,6.9,95,0.12,RA,,0.88,WeatherDisplay:10.37,2013-04-18 02:34:00,
2013-04-17 22:35:00,49.4,48.0,29.99,NNE,33,5.0,12.0,95,0.00,RA,,0.88,WeatherDisplay:10.37,2013-04-18 02:35:00,
2013-04-17 22:36:00,49.4,48.0,29.99,NNW,342,3.0,8.1,95,0.12,RA,,0.88,WeatherDisplay:10.37,2013-04-18 02:36:00,
2013-04-17 22:37:00,49.4,48.0,29.99,NNE,13,4.2,5.8,95,0.12,RA,,0.88,WeatherDisplay:10.37,2013-04-18 02:37:00,
2013-04-17 22:39:00,49.4,48.0,29.99,NNE,27,2.5,3.5,95,0.12,RA,,0.88,WeatherDisplay:10.37,2013-04-18 02:39:00,
2013-04-17 22:40:00,49.4,48.0,29.99,NNE,22,1.8,3.5,95,0.12,RA,,0.88,WeatherDisplay:10.37,2013-04-18 02:40:00,
2013-04-17 22:41:00,49.4,48.0,29.99,NNW,336,2.7,3.5,95,0.12,,,0.88,WeatherDisplay:10.37,2013-04-18 02:41:00,
2013-04-17 22:42:00,49.4,48.0,29.99,NE,42,4.1,6.9,95,0.12,,,0.89,WeatherDisplay:10.37,2013-04-18 02:42:00,
2013-04-17 22:44:00,49.4,48.0,29.99,NNE,31,5.3,6.9,95,0.13,RA,,0.89,WeatherDisplay:10.37,2013-04-18 02:44:00,
2013-04-17 22:45:00,49.4,48.0,29.99,NE,49,5.4,7.0,95,0.13,RA,,0.89,WeatherDisplay:10.37,2013-04-18 02:45:00,
2013-04-17 22:46:00,49.5,48.1,29.99,NE,53,7.7,10.4,95,0.13,RA,,0.89,WeatherDisplay:10.37,2013-04-18 02:46:00,
2013-04-17 22:47:00,49.5,48.1,29.99,NE,36,2.8,8.1,95,0.13,RA,,0.89,WeatherDisplay:10.37,2013-04-18 02:47:00,
2013-04-17 22:49:00,49.6,48.2,29.99,NE,49,5.0,6.9,95,0.13,RA,,0.89,WeatherDisplay:10.37,2013-04-18 02:49:00,
2013-04-17 22:50:00,49.6,48.2,29.98,NE,51,4.2,6.9,95,0.14,RA,,0.90,WeatherDisplay:10.37,2013-04-18 02:50:00,
2013-04-17 22:51:00,49.6,48.2,29.98,NNE,21,5.6,8.1,95,0.14,RA,,0.90,WeatherDisplay:10.37,2013-04-18 02:51:00,
2013-04-17 22:53:00,49.6,48.2,29.97,NE,34,6.3,10.4,95,0.14,RA,,0.90,WeatherDisplay:10.37,2013-04-18 02:53:00,
2013-04-17 22:54:00,49.7,48.3,29.97,NNE,26,4.7,9.2,95,0.13,RA,,0.90,WeatherDisplay:10.37,2013-04-18 02:54:00,
2013-04-17 22:55:00,49.7,48.3,29.97,NNE,19,4.1,5.8,95,0.12,RA,,0.90,WeatherDisplay:10.37,2013-04-18 02:55:00,
2013-04-17 22:57:00,49.7,48.3,29.97,NNE,16,4.1,4.6,95,0.11,RA,,0.90,WeatherDisplay:10.37,2013-04-18 02:57:00,
2013-04-17 22:58:00,49.7,48.3,29.97,NNE,25,3.6,5.8,95,0.10,RA,,0.90,WeatherDisplay:10.37,2013-04-18 02:58:00,
2013-04-17 22:59:00,49.7,48.3,29.97,NNE,12,4.2,5.0,95,0.10,RA,,0.90,WeatherDisplay:10.37,2013-04-18 02:59:00,
2013-04-17 23:00:00,49.7,48.3,29.97,NE,53,4.3,5.8,95,0.09,,,0.90,WeatherDisplay:10.37,2013-04-18 03:00:00,
2013-04-17 23:02:00,49.6,48.2,29.96,NE,49,5.6,8.1,95,0.09,CLR,,0.90,WeatherDisplay:10.37,2013-04-18 03:02:00,
2013-04-17 23:03:00,49.7,48.3,29.96,ESE,109,4.9,6.9,95,0.09,CLR,,0.90,WeatherDisplay:10.37,2013-04-18 03:03:00,
2013-04-17 23:04:00,49.6,48.2,29.96,ENE,75,11.2,12.7,95,0.09,CLR,,0.90,WeatherDisplay:10.37,2013-04-18 03:04:00,
2013-04-17 23:05:00,49.6,48.2,29.96,ESE,102,10.8,16.1,95,0.08,CLR,,0.90,WeatherDisplay:10.37,2013-04-18 03:05:00,
2013-04-17 23:06:00,49.7,48.3,29.96,East,93,6.6,12.7,95,0.08,CLR,,0.90,WeatherDisplay:10.37,2013-04-18 03:06:00,
2013-04-17 23:07:00,49.7,48.3,29.97,ENE,67,6.9,8.1,95,0.08,CLR,,0.90,WeatherDisplay:10.37,2013-04-18 03:07:00,
2013-04-17 23:08:00,49.7,48.3,29.97,NNE,29,7.0,10.4,95,0.08,CLR,,0.90,WeatherDisplay:10.37,2013-04-18 03:08:00,
2013-04-17 23:10:00,49.7,48.0,29.97,NE,53,3.9,8.1,94,0.08,CLR,,0.90,WeatherDisplay:10.37,2013-04-18 03:10:00,
2013-04-17 23:12:00,49.7,48.0,29.97,NNE,33,3.9,8.1,94,0.08,CLR,,0.90,WeatherDisplay:10.37,2013-04-18 03:12:00,
2013-04-17 23:14:00,49.7,48.0,29.97,NE,39,2.6,5.0,94,0.07,CLR,,0.90,WeatherDisplay:10.37,2013-04-18 03:14:00,
2013-04-17 23:15:00,49.7,48.0,29.97,NNE,32,3.5,5.0,94,0.07,CLR,,0.90,WeatherDisplay:10.37,2013-04-18 03:15:00,
2013-04-17 23:17:00,49.6,47.9,29.97,East,87,3.8,4.6,94,0.06,CLR,,0.90,WeatherDisplay:10.37,2013-04-18 03:17:00,
2013-04-17 23:18:00,49.6,47.9,29.97,NE,50,3.2,4.6,94,0.06,CLR,,0.90,WeatherDisplay:10.37,2013-04-18 03:18:00,
2013-04-17 23:19:00,49.6,47.9,29.97,ENE,76,2.4,5.0,94,0.06,CLR,,0.90,WeatherDisplay:10.37,2013-04-18 03:19:00,
2013-04-17 23:20:00,49.6,47.9,29.97,NE,49,5.1,8.1,94,0.05,CLR,,0.90,WeatherDisplay:10.37,2013-04-18 03:20:00,
2013-04-17 23:22:00,49.5,47.8,29.97,East,91,7.3,16.1,94,0.05,CLR,,0.90,WeatherDisplay:10.37,2013-04-18 03:22:00,
2013-04-17 23:23:00,49.4,47.7,29.97,ENE,78,7.1,11.5,94,0.04,CLR,,0.90,WeatherDisplay:10.37,2013-04-18 03:23:00,
2013-04-17 23:24:00,49.2,47.3,29.97,ENE,76,6.1,11.5,93,0.04,CLR,,0.90,WeatherDisplay:10.37,2013-04-18 03:24:00,
2013-04-17 23:25:00,49.2,47.3,29.97,NE,56,7.3,9.2,93,0.04,CLR,,0.90,WeatherDisplay:10.37,2013-04-18 03:25:00,
2013-04-17 23:27:00,49.0,47.1,29.97,NE,55,4.8,8.1,93,0.03,CLR,,0.90,WeatherDisplay:10.37,2013-04-18 03:27:00,
2013-04-17 23:28:00,48.9,47.0,29.97,ENE,64,6.3,9.2,93,0.03,CLR,,0.90,WeatherDisplay:10.37,2013-04-18 03:28:00,
2013-04-17 23:29:00,48.8,46.9,29.97,NE,43,8.2,12.7,93,0.03,CLR,,0.90,WeatherDisplay:10.37,2013-04-18 03:29:00,
2013-04-17 23:30:00,48.8,46.9,29.97,ENE,78,4.2,13.0,93,0.03,CLR,,0.90,WeatherDisplay:10.37,2013-04-18 03:30:00,
2013-04-17 23:31:00,48.7,46.8,29.97,NE,42,6.1,15.0,93,0.02,CLR,,0.90,WeatherDisplay:10.37,2013-04-18 03:31:00,
2013-04-17 23:32:00,48.7,46.5,29.97,NE,46,7.6,15.0,92,0.02,CLR,,0.90,WeatherDisplay:10.37,2013-04-18 03:32:00,
2013-04-17 23:34:00,48.6,46.4,29.97,ENE,62,7.6,11.5,92,0.02,CLR,,0.90,WeatherDisplay:10.37,2013-04-18 03:34:00,
2013-04-17 23:35:00,48.5,46.3,29.97,ENE,62,7.0,15.0,92,0.00,CLR,,0.90,WeatherDisplay:10.37,2013-04-18 03:35:00,
2013-04-17 23:37:00,48.4,46.2,29.97,East,87,5.3,13.8,92,0.02,CLR,,0.90,WeatherDisplay:10.37,2013-04-18 03:37:00,
2013-04-17 23:39:00,48.3,46.1,29.96,East,79,6.1,13.0,92,0.02,CLR,,0.90,WeatherDisplay:10.37,2013-04-18 03:39:00,
2013-04-17 23:40:00,48.2,46.0,29.96,East,83,7.3,8.1,92,0.02,CLR,,0.90,WeatherDisplay:10.37,2013-04-18 03:40:00,
2013-04-17 23:41:00,48.2,46.0,29.96,ENE,74,5.6,9.0,92,0.02,CLR,,0.90,WeatherDisplay:10.37,2013-04-18 03:41:00,
2013-04-17 23:42:00,48.1,45.9,29.96,NE,48,7.0,12.0,92,0.02,CLR,,0.90,WeatherDisplay:10.37,2013-04-18 03:42:00,
2013-04-17 23:44:00,48.1,45.9,29.95,NNE,26,7.6,10.4,92,0.01,CLR,,0.90,WeatherDisplay:10.37,2013-04-18 03:44:00,
2013-04-17 23:45:00,48.1,45.9,29.95,East,84,5.9,8.1,92,0.01,CLR,,0.90,WeatherDisplay:10.37,2013-04-18 03:45:00,
2013-04-17 23:46:00,48.0,45.8,29.95,ENE,60,6.7,11.0,92,0.01,CLR,,0.90,WeatherDisplay:10.37,2013-04-18 03:46:00,
2013-04-17 23:47:00,47.9,45.7,29.95,ESE,113,7.4,12.7,92,0.01,CLR,,0.90,WeatherDisplay:10.37,2013-04-18 03:47:00,
2013-04-17 23:48:00,47.9,45.7,29.95,NE,53,4.0,8.1,92,0.01,CLR,,0.90,WeatherDisplay:10.37,2013-04-18 03:48:00,
2013-04-17 23:49:00,47.9,46.0,29.95,ENE,75,4.6,6.9,93,0.01,CLR,,0.90,WeatherDisplay:10.37,2013-04-18 03:49:00,
2013-04-17 23:50:00,47.9,46.0,29.95,NE,47,4.9,8.1,93,0.00,CLR,,0.90,WeatherDisplay:10.37,2013-04-18 03:50:00,
2013-04-17 23:51:00,47.9,46.0,29.94,East,96,5.5,6.9,93,0.00,CLR,,0.90,WeatherDisplay:10.37,2013-04-18 03:51:00,
2013-04-17 23:52:00,47.8,45.9,29.94,East,94,5.3,9.0,93,0.00,CLR,,0.90,WeatherDisplay:10.37,2013-04-18 03:52:00,
2013-04-17 23:53:00,47.8,45.9,29.94,East,82,9.7,12.7,93,0.00,CLR,,0.90,WeatherDisplay:10.37,2013-04-18 03:53:00,
2013-04-17 23:54:00,47.8,45.9,29.94,ENE,58,8.3,16.1,93,0.00,CLR,,0.90,WeatherDisplay:10.37,2013-04-18 03:54:00,
2013-04-17 23:55:00,47.8,45.6,29.94,ENE,78,6.7,11.5,92,0.00,CLR,,0.90,WeatherDisplay:10.37,2013-04-18 03:55:00,
2013-04-17 23:56:00,47.7,45.5,29.93,ENE,58,6.4,10.4,92,0.00,CLR,,0.90,WeatherDisplay:10.37,2013-04-18 03:56:00,
2013-04-17 23:58:00,47.7,45.5,29.93,East,82,7.0,12.7,92,0.00,CLR,,0.90,WeatherDisplay:10.37,2013-04-18 03:58:00,
2013-04-17 23:59:00,47.7,45.5,29.93,NE,35,8.6,17.3,92,0.00,CLR,,0.90,WeatherDisplay:10.37,2013-04-18 03:59:00,